Time,TemperatureF,DewpointF,PressureIn,WindDirection,WindDirectionDegrees,WindSpeedMPH,WindSpeedGustMPH,Humidity,HourlyPrecipIn,Conditions,Clouds,dailyrainin,SoftwareType,DateUTC
2013-04-04 00:00:00,32.8,13.6,30.26,NNW,338,6.9,7.8,45,0.00,,,0.00,WUHU216HW,2013-04-04 04:00:00,
2013-04-04 00:05:00,32.8,13.6,30.27,NNW,338,5.1,7.8,45,0.00,,,0.00,WUHU216HW,2013-04-04 04:05:00,
2013-04-04 00:10:00,32.7,13.6,30.27,North,0,6.5,7.2,45,0.00,,,0.00,WUHU216HW,2013-04-04 04:10:00,
2013-04-04 00:15:00,32.7,13.6,30.27,WSW,248,11.4,11.4,45,0.00,,,0.00,WUHU216HW,2013-04-04 04:15:00,
2013-04-04 00:20:00,32.7,14.1,30.27,NNW,338,5.4,11.4,46,0.00,,,0.00,WUHU216HW,2013-04-04 04:20:00,
2013-04-04 00:25:00,32.7,14.1,30.28,WNW,293,7.6,9.8,46,0.00,,,0.00,WUHU216HW,2013-04-04 04:25:00,
2013-04-04 00:26:00,32.7,14.1,30.28,WNW,293,7.6,9.8,46,0.00,,,0.00,WUHU216HW,2013-04-04 04:26:00,
2013-04-04 00:30:00,32.7,14.1,30.27,NNW,338,4.0,9.8,46,0.00,,,0.00,WUHU216HW,2013-04-04 04:30:00,
2013-04-04 00:31:00,32.7,14.1,30.27,NNW,338,4.0,9.8,46,0.00,,,0.00,WUHU216HW,2013-04-04 04:31:00,
2013-04-04 00:36:00,32.7,14.1,30.27,NNW,338,6.3,12.1,46,0.00,,,0.00,WUHU216HW,2013-04-04 04:36:00,
2013-04-04 00:37:00,32.7,14.1,30.27,North,0,4.0,12.1,46,0.00,,,0.00,WUHU216HW,2013-04-04 04:37:00,
2013-04-04 00:41:00,32.8,14.2,30.26,North,0,4.7,12.1,46,0.00,,,0.00,WUHU216HW,2013-04-04 04:41:00,
2013-04-04 00:42:00,32.7,14.1,30.26,NW,315,4.7,12.1,46,0.00,,,0.00,WUHU216HW,2013-04-04 04:42:00,
2013-04-04 00:46:00,32.7,14.1,30.26,North,0,5.4,9.2,46,0.00,,,0.00,WUHU216HW,2013-04-04 04:46:00,
2013-04-04 00:47:00,32.7,14.1,30.26,North,0,5.4,9.2,46,0.00,,,0.00,WUHU216HW,2013-04-04 04:47:00,
2013-04-04 00:52:00,32.7,14.1,30.26,NW,315,10.5,10.5,46,0.00,,,0.00,WUHU216HW,2013-04-04 04:52:00,
2013-04-04 00:53:00,32.7,14.1,30.25,NNW,338,5.6,10.5,46,0.00,,,0.00,WUHU216HW,2013-04-04 04:53:00,
2013-04-04 00:57:00,32.5,13.9,30.25,NW,315,3.8,10.5,46,0.00,,,0.00,WUHU216HW,2013-04-04 04:57:00,
2013-04-04 00:58:00,32.5,13.9,30.25,NW,315,3.8,10.5,46,0.00,,,0.00,WUHU216HW,2013-04-04 04:58:00,
2013-04-04 01:02:00,32.3,13.7,30.25,NNW,338,6.0,7.4,46,0.00,,,0.00,WUHU216HW,2013-04-04 05:02:00,
2013-04-04 01:03:00,32.3,13.7,30.25,NNW,338,9.2,9.2,46,0.00,,,0.00,WUHU216HW,2013-04-04 05:03:00,
2013-04-04 01:07:00,32.5,13.9,30.25,NNW,338,5.8,12.3,46,0.00,,,0.00,WUHU216HW,2013-04-04 05:07:00,
2013-04-04 01:08:00,32.5,13.9,30.26,NNW,338,5.6,12.3,46,0.00,,,0.00,WUHU216HW,2013-04-04 05:08:00,
2013-04-04 01:12:00,32.5,13.9,30.26,NNE,23,6.0,12.3,46,0.00,,,0.00,WUHU216HW,2013-04-04 05:12:00,
2013-04-04 01:13:00,32.5,13.9,30.25,NNE,23,7.6,12.3,46,0.00,,,0.00,WUHU216HW,2013-04-04 05:13:00,
2013-04-04 01:17:00,32.5,13.9,30.26,North,0,3.4,7.6,46,0.00,,,0.00,WUHU216HW,2013-04-04 05:17:00,
2013-04-04 01:18:00,32.7,14.1,30.25,NNW,338,6.0,7.6,46,0.00,,,0.00,WUHU216HW,2013-04-04 05:18:00,
2013-04-04 01:23:00,32.5,13.9,30.26,NNW,338,7.6,7.6,46,0.00,,,0.00,WUHU216HW,2013-04-04 05:23:00,
2013-04-04 01:28:00,32.5,13.9,30.26,North,0,3.6,9.8,46,0.00,,,0.00,WUHU216HW,2013-04-04 05:28:00,
2013-04-04 01:29:00,32.5,13.9,30.26,North,0,3.6,9.8,46,0.00,,,0.00,WUHU216HW,2013-04-04 05:29:00,
2013-04-04 01:33:00,32.5,13.9,30.25,North,0,4.7,9.8,46,0.00,,,0.00,WUHU216HW,2013-04-04 05:33:00,
2013-04-04 01:34:00,32.5,13.9,30.25,NW,315,4.5,9.8,46,0.00,,,0.00,WUHU216HW,2013-04-04 05:34:00,
2013-04-04 01:36:00,32.5,13.9,30.25,North,0,5.4,9.6,46,0.00,,,0.00,WUHU216HW,2013-04-04 05:36:00,
2013-04-04 01:38:00,32.3,13.7,30.26,North,0,1.3,9.6,46,0.00,,,0.00,WUHU216HW,2013-04-04 05:38:00,
2013-04-04 01:39:00,32.3,13.7,30.25,North,0,2.2,9.6,46,0.00,,,0.00,WUHU216HW,2013-04-04 05:39:00,
2013-04-04 01:42:00,32.1,13.5,30.25,NW,315,6.9,6.9,46,0.00,,,0.00,WUHU216HW,2013-04-04 05:42:00,
2013-04-04 01:43:00,32.1,13.5,30.26,NNE,23,5.8,6.9,46,0.00,,,0.00,WUHU216HW,2013-04-04 05:43:00,
2013-04-04 01:45:00,32.1,14.0,30.25,NNW,338,2.9,6.9,47,0.00,,,0.00,WUHU216HW,2013-04-04 05:45:00,
2013-04-04 01:47:00,32.1,14.0,30.25,North,0,4.0,6.9,47,0.00,,,0.00,WUHU216HW,2013-04-04 05:47:00,
2013-04-04 01:49:00,32.1,13.5,30.25,NNW,338,4.5,6.9,46,0.00,,,0.00,WUHU216HW,2013-04-04 05:49:00,
2013-04-04 01:50:00,32.1,13.5,30.25,NNE,23,6.3,6.9,46,0.00,,,0.00,WUHU216HW,2013-04-04 05:50:00,
2013-04-04 01:52:00,32.1,14.0,30.25,NNW,338,3.8,6.3,47,0.00,,,0.00,WUHU216HW,2013-04-04 05:52:00,
2013-04-04 01:54:00,32.1,14.0,30.25,North,0,4.3,6.3,47,0.00,,,0.00,WUHU216HW,2013-04-04 05:54:00,
2013-04-04 01:55:00,32.1,14.0,30.25,North,0,5.1,6.3,47,0.00,,,0.00,WUHU216HW,2013-04-04 05:55:00,
2013-04-04 01:57:00,32.1,14.0,30.25,NW,315,10.3,10.3,47,0.00,,,0.00,WUHU216HW,2013-04-04 05:57:00,
2013-04-04 01:59:00,32.1,14.0,30.25,North,0,7.6,10.3,47,0.00,,,0.00,WUHU216HW,2013-04-04 05:59:00,
2013-04-04 02:00:00,32.1,13.5,30.25,North,0,4.7,10.3,46,0.00,,,0.00,WUHU216HW,2013-04-04 06:00:00,
2013-04-04 02:02:00,32.1,13.5,30.25,NW,315,6.3,10.3,46,0.00,,,0.00,WUHU216HW,2013-04-04 06:02:00,
2013-04-04 02:04:00,32.1,13.5,30.25,North,0,9.8,10.3,46,0.00,,,0.00,WUHU216HW,2013-04-04 06:04:00,
2013-04-04 02:05:00,32.1,13.5,30.24,NW,315,10.5,10.5,46,0.00,,,0.00,WUHU216HW,2013-04-04 06:05:00,
2013-04-04 02:07:00,32.1,13.5,30.24,North,0,7.4,10.5,46,0.00,,,0.00,WUHU216HW,2013-04-04 06:07:00,
2013-04-04 02:10:00,32.1,13.5,30.24,North,0,4.3,10.5,46,0.00,,,0.00,WUHU216HW,2013-04-04 06:10:00,
2013-04-04 02:12:00,32.1,13.5,30.24,NNW,338,6.3,10.5,46,0.00,,,0.00,WUHU216HW,2013-04-04 06:12:00,
2013-04-04 02:15:00,32.1,13.5,30.24,WNW,293,4.9,9.2,46,0.00,,,0.00,WUHU216HW,2013-04-04 06:15:00,
2013-04-04 02:17:00,32.1,13.5,30.24,NW,315,7.4,9.2,46,0.00,,,0.00,WUHU216HW,2013-04-04 06:17:00,
2013-04-04 02:18:00,32.1,13.5,30.24,NW,315,7.4,9.2,46,0.00,,,0.00,WUHU216HW,2013-04-04 06:18:00,
2013-04-04 02:20:00,31.9,13.8,30.24,North,0,8.9,9.2,47,0.00,,,0.00,WUHU216HW,2013-04-04 06:20:00,
2013-04-04 02:22:00,31.9,13.3,30.25,North,0,4.7,8.9,46,0.00,,,0.00,WUHU216HW,2013-04-04 06:22:00,
2013-04-04 02:23:00,31.9,13.3,30.25,NNW,338,4.0,8.9,46,0.00,,,0.00,WUHU216HW,2013-04-04 06:23:00,
2013-04-04 02:25:00,31.9,13.8,30.25,NNE,23,4.7,8.9,47,0.00,,,0.00,WUHU216HW,2013-04-04 06:25:00,
2013-04-04 02:27:00,31.9,13.8,30.25,NNE,23,4.7,8.9,47,0.00,,,0.00,WUHU216HW,2013-04-04 06:27:00,
2013-04-04 02:30:00,31.9,13.8,30.25,NW,315,4.0,8.9,47,0.00,,,0.00,WUHU216HW,2013-04-04 06:30:00,
2013-04-04 02:31:00,31.9,13.8,30.25,NNW,338,3.8,6.3,47,0.00,,,0.00,WUHU216HW,2013-04-04 06:31:00,
2013-04-04 02:33:00,31.8,13.7,30.25,NNW,338,3.4,4.9,47,0.00,,,0.00,WUHU216HW,2013-04-04 06:33:00,
2013-04-04 02:35:00,31.8,13.2,30.25,North,0,4.0,4.9,46,0.00,,,0.00,WUHU216HW,2013-04-04 06:35:00,
2013-04-04 02:36:00,31.8,13.7,30.26,North,0,3.6,5.6,47,0.00,,,0.00,WUHU216HW,2013-04-04 06:36:00,
2013-04-04 02:38:00,31.8,13.7,30.26,North,0,3.8,5.6,47,0.00,,,0.00,WUHU216HW,2013-04-04 06:38:00,
2013-04-04 02:40:00,31.8,13.7,30.26,NW,315,4.0,5.6,47,0.00,,,0.00,WUHU216HW,2013-04-04 06:40:00,
2013-04-04 02:41:00,31.8,13.7,30.26,NNE,23,2.2,5.6,47,0.00,,,0.00,WUHU216HW,2013-04-04 06:41:00,
2013-04-04 02:43:00,31.8,13.7,30.26,North,0,3.1,5.6,47,0.00,,,0.00,WUHU216HW,2013-04-04 06:43:00,
2013-04-04 02:45:00,31.6,13.6,30.26,North,0,1.8,4.0,47,0.00,,,0.00,WUHU216HW,2013-04-04 06:45:00,
2013-04-04 02:46:00,31.4,13.4,30.26,NNW,338,1.8,4.0,47,0.00,,,0.00,WUHU216HW,2013-04-04 06:46:00,
2013-04-04 02:47:00,31.4,13.4,30.26,NNW,338,4.0,4.0,47,0.00,,,0.00,WUHU216HW,2013-04-04 06:47:00,
2013-04-04 02:48:00,31.4,13.4,30.26,NW,315,2.5,4.0,47,0.00,,,0.00,WUHU216HW,2013-04-04 06:48:00,
2013-04-04 02:50:00,31.2,13.2,30.25,NNW,338,3.6,4.0,47,0.00,,,0.00,WUHU216HW,2013-04-04 06:50:00,
2013-04-04 02:52:00,31.2,13.2,30.26,North,0,4.0,4.0,47,0.00,,,0.00,WUHU216HW,2013-04-04 06:52:00,
2013-04-04 02:53:00,31.2,13.2,30.26,NW,315,2.5,4.0,47,0.00,,,0.00,WUHU216HW,2013-04-04 06:53:00,
2013-04-04 02:55:00,31.2,13.2,30.26,NNW,338,7.6,7.6,47,0.00,,,0.00,WUHU216HW,2013-04-04 06:55:00,
2013-04-04 02:57:00,31.2,13.2,30.26,NW,315,4.5,7.6,47,0.00,,,0.00,WUHU216HW,2013-04-04 06:57:00,
2013-04-04 02:58:00,31.2,13.2,30.26,NW,315,6.3,7.6,47,0.00,,,0.00,WUHU216HW,2013-04-04 06:58:00,
2013-04-04 03:00:00,31.0,13.5,30.26,NNW,338,5.1,7.6,48,0.00,,,0.00,WUHU216HW,2013-04-04 07:00:00,
2013-04-04 03:02:00,31.0,13.5,30.26,NNW,338,3.1,7.6,48,0.00,,,0.00,WUHU216HW,2013-04-04 07:02:00,
2013-04-04 03:03:00,31.0,13.5,30.26,NNW,338,2.7,7.6,48,0.00,,,0.00,WUHU216HW,2013-04-04 07:03:00,
2013-04-04 03:05:00,31.0,13.5,30.26,WNW,293,4.5,7.2,48,0.00,,,0.00,WUHU216HW,2013-04-04 07:05:00,
2013-04-04 03:07:00,31.0,13.5,30.26,NNW,338,4.3,7.2,48,0.00,,,0.00,WUHU216HW,2013-04-04 07:07:00,
2013-04-04 03:08:00,31.0,13.5,30.26,North,0,2.5,7.2,48,0.00,,,0.00,WUHU216HW,2013-04-04 07:08:00,
2013-04-04 03:11:00,30.9,13.4,30.26,North,0,1.1,7.2,48,0.00,,,0.00,WUHU216HW,2013-04-04 07:11:00,
2013-04-04 03:12:00,31.0,13.5,30.26,North,0,1.8,7.2,48,0.00,,,0.00,WUHU216HW,2013-04-04 07:12:00,
2013-04-04 03:13:00,31.0,14.0,30.27,NNW,338,3.1,7.2,49,0.00,,,0.00,WUHU216HW,2013-04-04 07:13:00,
2013-04-04 03:16:00,31.0,14.0,30.27,NNW,338,4.0,7.6,49,0.00,,,0.00,WUHU216HW,2013-04-04 07:16:00,
2013-04-04 03:17:00,31.0,14.0,30.27,West,270,2.9,7.6,49,0.00,,,0.00,WUHU216HW,2013-04-04 07:17:00,
2013-04-04 03:18:00,31.0,14.0,30.27,NNW,338,3.4,7.6,49,0.00,,,0.00,WUHU216HW,2013-04-04 07:18:00,
2013-04-04 03:21:00,31.0,13.5,30.27,NW,315,3.4,7.6,48,0.00,,,0.00,WUHU216HW,2013-04-04 07:21:00,
2013-04-04 03:22:00,31.0,13.5,30.27,WNW,293,0.9,7.6,48,0.00,,,0.00,WUHU216HW,2013-04-04 07:22:00,
2013-04-04 03:23:00,31.0,13.5,30.27,North,0,2.5,7.6,48,0.00,,,0.00,WUHU216HW,2013-04-04 07:23:00,
2013-04-04 03:26:00,31.0,14.0,30.28,West,270,1.3,3.6,49,0.00,,,0.00,WUHU216HW,2013-04-04 07:26:00,
2013-04-04 03:28:00,31.0,14.0,30.28,WNW,293,2.5,3.6,49,0.00,,,0.00,WUHU216HW,2013-04-04 07:28:00,
2013-04-04 03:29:00,31.0,14.0,30.28,NW,315,5.4,5.4,49,0.00,,,0.00,WUHU216HW,2013-04-04 07:29:00,
2013-04-04 03:31:00,30.9,13.9,30.28,NNW,338,4.5,5.4,49,0.00,,,0.00,WUHU216HW,2013-04-04 07:31:00,
2013-04-04 03:33:00,31.0,14.0,30.28,NW,315,2.9,5.4,49,0.00,,,0.00,WUHU216HW,2013-04-04 07:33:00,
2013-04-04 03:35:00,31.0,14.0,30.28,West,270,1.1,5.4,49,0.00,,,0.00,WUHU216HW,2013-04-04 07:35:00,
2013-04-04 03:37:00,31.0,13.5,30.28,West,270,4.0,5.4,48,0.00,,,0.00,WUHU216HW,2013-04-04 07:37:00,
2013-04-04 03:38:00,30.9,13.4,30.28,South,180,0.7,5.4,48,0.00,,,0.00,WUHU216HW,2013-04-04 07:38:00,
2013-04-04 03:40:00,30.7,13.2,30.28,NW,315,2.0,4.5,48,0.00,,,0.00,WUHU216HW,2013-04-04 07:40:00,
2013-04-04 03:42:00,30.5,13.5,30.28,WNW,293,2.5,4.0,49,0.00,,,0.00,WUHU216HW,2013-04-04 07:42:00,
2013-04-04 03:43:00,30.5,13.5,30.28,WNW,293,1.3,4.0,49,0.00,,,0.00,WUHU216HW,2013-04-04 07:43:00,
2013-04-04 03:45:00,30.5,13.5,30.28,West,270,2.0,4.0,49,0.00,,,0.00,WUHU216HW,2013-04-04 07:45:00,
2013-04-04 03:46:00,30.3,13.3,30.28,West,270,1.8,1.8,49,0.00,,,0.00,WUHU216HW,2013-04-04 07:46:00,
2013-04-04 03:47:00,30.3,13.3,30.28,West,270,1.8,3.6,49,0.00,,,0.00,WUHU216HW,2013-04-04 07:47:00,
2013-04-04 03:48:00,30.3,13.3,30.28,West,270,1.8,3.6,49,0.00,,,0.00,WUHU216HW,2013-04-04 07:48:00,
2013-04-04 03:50:00,30.3,13.3,30.28,West,270,1.8,3.6,49,0.00,,,0.00,WUHU216HW,2013-04-04 07:50:00,
2013-04-04 03:52:00,30.3,13.3,30.28,West,270,1.8,3.6,49,0.00,,,0.00,WUHU216HW,2013-04-04 07:52:00,
2013-04-04 03:53:00,30.3,13.3,30.28,West,270,1.8,3.6,49,0.00,,,0.00,WUHU216HW,2013-04-04 07:53:00,
2013-04-04 04:00:00,30.1,13.2,30.29,NNW,338,0.7,0.7,49,0.00,,,0.00,WUHU216HW,2013-04-04 08:00:00,
2013-04-04 04:05:00,29.8,12.9,30.29,WNW,293,2.2,2.2,49,0.00,,,0.00,WUHU216HW,2013-04-04 08:05:00,
2013-04-04 04:10:00,29.2,12.8,30.29,WSW,248,0.9,2.5,50,0.00,,,0.00,WUHU216HW,2013-04-04 08:10:00,
2013-04-04 04:11:00,29.2,12.8,30.29,West,270,2.9,2.9,50,0.00,,,0.00,WUHU216HW,2013-04-04 08:11:00,
2013-04-04 04:15:00,29.1,12.7,30.29,WSW,248,0.9,2.9,50,0.00,,,0.00,WUHU216HW,2013-04-04 08:15:00,
2013-04-04 04:16:00,29.1,12.7,30.29,WSW,248,0.9,2.9,50,0.00,,,0.00,WUHU216HW,2013-04-04 08:16:00,
2013-04-04 04:20:00,28.9,13.0,30.29,WSW,248,0.7,2.9,51,0.00,,,0.00,WUHU216HW,2013-04-04 08:20:00,
2013-04-04 04:21:00,28.9,13.0,30.29,South,180,1.3,1.3,51,0.00,,,0.00,WUHU216HW,2013-04-04 08:21:00,
2013-04-04 04:22:00,28.9,13.0,30.29,South,180,1.3,1.3,51,0.00,,,0.00,WUHU216HW,2013-04-04 08:22:00,
2013-04-04 04:25:00,28.7,12.8,30.29,SSW,203,1.3,1.3,51,0.00,,,0.00,WUHU216HW,2013-04-04 08:25:00,
2013-04-04 04:27:00,28.5,12.6,30.29,SSW,203,1.8,1.8,51,0.00,,,0.00,WUHU216HW,2013-04-04 08:27:00,
2013-04-04 04:30:00,28.3,12.4,30.29,SSW,203,1.1,1.8,51,0.00,,,0.00,WUHU216HW,2013-04-04 08:30:00,
2013-04-04 04:32:00,28.3,12.4,30.29,SSW,203,1.3,1.8,51,0.00,,,0.00,WUHU216HW,2013-04-04 08:32:00,
2013-04-04 04:35:00,28.2,12.3,30.29,SSW,203,0.7,1.8,51,0.00,,,0.00,WUHU216HW,2013-04-04 08:35:00,
2013-04-04 04:37:00,28.2,12.3,30.29,SSW,203,0.4,1.8,51,0.00,,,0.00,WUHU216HW,2013-04-04 08:37:00,
2013-04-04 04:38:00,28.2,12.3,30.29,SSW,203,0.4,1.6,51,0.00,,,0.00,WUHU216HW,2013-04-04 08:38:00,
2013-04-04 04:41:00,28.0,12.6,30.29,SSW,203,0.4,1.6,52,0.00,,,0.00,WUHU216HW,2013-04-04 08:41:00,
2013-04-04 04:42:00,27.8,12.4,30.29,SSW,203,0.7,1.6,52,0.00,,,0.00,WUHU216HW,2013-04-04 08:42:00,
2013-04-04 04:43:00,27.8,12.4,30.29,SSW,203,0.7,1.6,52,0.00,,,0.00,WUHU216HW,2013-04-04 08:43:00,
2013-04-04 04:46:00,27.8,12.4,30.30,SW,225,0.4,0.9,52,0.00,,,0.00,WUHU216HW,2013-04-04 08:46:00,
2013-04-04 04:48:00,27.6,12.2,30.29,WSW,248,0.4,1.8,52,0.00,,,0.00,WUHU216HW,2013-04-04 08:48:00,
2013-04-04 04:51:00,27.4,11.6,30.30,WSW,248,0.7,1.8,51,0.00,,,0.00,WUHU216HW,2013-04-04 08:51:00,
2013-04-04 04:53:00,27.4,12.9,30.30,SSW,203,0.0,1.8,54,0.00,,,0.00,WUHU216HW,2013-04-04 08:53:00,
2013-04-04 04:58:00,27.4,12.0,30.30,SW,225,1.1,1.3,52,0.00,,,0.00,WUHU216HW,2013-04-04 08:58:00,
2013-04-04 04:59:00,27.4,12.0,30.30,South,180,1.1,1.3,52,0.00,,,0.00,WUHU216HW,2013-04-04 08:59:00,
2013-04-04 05:03:00,27.4,12.5,30.30,SE,135,0.4,1.3,53,0.00,,,0.00,WUHU216HW,2013-04-04 09:03:00,
2013-04-04 05:04:00,27.4,12.5,30.30,SE,135,0.4,1.3,53,0.00,,,0.00,WUHU216HW,2013-04-04 09:04:00,
2013-04-04 05:05:00,27.4,13.3,30.30,SSE,158,0.4,1.3,55,0.00,,,0.00,WUHU216HW,2013-04-04 09:05:00,
2013-04-04 05:08:00,27.4,12.5,30.31,WSW,248,1.1,1.3,53,0.00,,,0.00,WUHU216HW,2013-04-04 09:08:00,
2013-04-04 05:10:00,27.4,12.5,30.31,WSW,248,1.6,1.6,53,0.00,,,0.00,WUHU216HW,2013-04-04 09:10:00,
2013-04-04 05:13:00,27.4,12.9,30.31,WSW,248,2.5,2.5,54,0.00,,,0.00,WUHU216HW,2013-04-04 09:13:00,
2013-04-04 05:14:00,27.4,12.9,30.31,West,270,1.8,2.5,54,0.00,,,0.00,WUHU216HW,2013-04-04 09:14:00,
2013-04-04 05:15:00,27.4,12.5,30.31,WSW,248,1.8,2.5,53,0.00,,,0.00,WUHU216HW,2013-04-04 09:15:00,
2013-04-04 05:18:00,27.4,12.9,30.31,WSW,248,1.3,2.5,54,0.00,,,0.00,WUHU216HW,2013-04-04 09:18:00,
2013-04-04 05:20:00,27.4,12.5,30.31,WSW,248,0.9,4.0,53,0.00,,,0.00,WUHU216HW,2013-04-04 09:20:00,
2013-04-04 05:23:00,27.4,12.5,30.31,South,180,1.3,4.0,53,0.00,,,0.00,WUHU216HW,2013-04-04 09:23:00,
2013-04-04 05:25:00,27.4,12.5,30.31,SW,225,0.7,4.0,53,0.00,,,0.00,WUHU216HW,2013-04-04 09:25:00,
2013-04-04 05:26:00,27.4,12.5,30.31,SW,225,0.7,4.0,53,0.00,,,0.00,WUHU216HW,2013-04-04 09:26:00,
2013-04-04 05:29:00,27.4,13.3,30.31,SW,225,0.4,1.3,55,0.00,,,0.00,WUHU216HW,2013-04-04 09:29:00,
2013-04-04 05:30:00,27.4,13.3,30.31,SSW,203,1.1,1.3,55,0.00,,,0.00,WUHU216HW,2013-04-04 09:30:00,
2013-04-04 05:31:00,27.4,13.3,30.31,SSW,203,1.1,1.3,55,0.00,,,0.00,WUHU216HW,2013-04-04 09:31:00,
2013-04-04 05:35:00,27.4,12.9,30.31,South,180,1.1,1.8,54,0.00,,,0.00,WUHU216HW,2013-04-04 09:35:00,
2013-04-04 05:36:00,27.4,12.9,30.31,South,180,0.9,1.8,54,0.00,,,0.00,WUHU216HW,2013-04-04 09:36:00,
2013-04-04 05:40:00,27.3,13.7,30.31,SSW,203,0.7,1.8,56,0.00,,,0.00,WUHU216HW,2013-04-04 09:40:00,
2013-04-04 05:41:00,27.3,13.7,30.31,SSW,203,0.0,1.8,56,0.00,,,0.00,WUHU216HW,2013-04-04 09:41:00,
2013-04-04 05:42:00,27.3,13.2,30.31,SSW,203,0.0,1.1,55,0.00,,,0.00,WUHU216HW,2013-04-04 09:42:00,
2013-04-04 05:45:00,27.3,13.2,30.31,SSW,203,0.0,1.1,55,0.00,,,0.00,WUHU216HW,2013-04-04 09:45:00,
2013-04-04 05:46:00,27.3,13.2,30.31,SSW,203,0.0,1.1,55,0.00,,,0.00,WUHU216HW,2013-04-04 09:46:00,
2013-04-04 05:47:00,27.1,13.1,30.31,South,180,0.0,1.1,55,0.00,,,0.00,WUHU216HW,2013-04-04 09:47:00,
2013-04-04 05:50:00,27.1,13.5,30.31,South,180,0.9,0.9,56,0.00,,,0.00,WUHU216HW,2013-04-04 09:50:00,
2013-04-04 05:52:00,26.9,13.3,30.31,South,180,0.9,0.9,56,0.00,,,0.00,WUHU216HW,2013-04-04 09:52:00,
2013-04-04 05:55:00,26.7,13.1,30.32,SSW,203,1.1,1.1,56,0.00,,,0.00,WUHU216HW,2013-04-04 09:55:00,
2013-04-04 05:57:00,26.7,13.1,30.32,SSW,203,1.1,1.1,56,0.00,,,0.00,WUHU216HW,2013-04-04 09:57:00,
2013-04-04 06:01:00,26.4,12.8,30.32,SSW,203,0.0,1.1,56,0.00,,,0.00,WUHU216HW,2013-04-04 10:01:00,
2013-04-04 06:02:00,26.4,12.8,30.32,SSW,203,0.0,1.1,56,0.00,,,0.00,WUHU216HW,2013-04-04 10:02:00,
2013-04-04 06:03:00,26.4,12.8,30.32,SSW,203,0.0,1.1,56,0.00,,,0.00,WUHU216HW,2013-04-04 10:03:00,
2013-04-04 06:07:00,26.2,12.6,30.33,SSW,203,1.1,1.1,56,0.00,,,0.00,WUHU216HW,2013-04-04 10:07:00,
2013-04-04 06:08:00,26.0,12.4,30.33,SSW,203,0.9,1.1,56,0.00,,,0.00,WUHU216HW,2013-04-04 10:08:00,
2013-04-04 06:12:00,26.0,12.4,30.33,SSW,203,0.0,1.1,56,0.00,,,0.00,WUHU216HW,2013-04-04 10:12:00,
2013-04-04 06:13:00,26.0,12.4,30.33,SSW,203,0.0,1.1,56,0.00,,,0.00,WUHU216HW,2013-04-04 10:13:00,
2013-04-04 06:17:00,25.8,13.1,30.33,WSW,248,2.0,2.0,58,0.00,,,0.00,WUHU216HW,2013-04-04 10:17:00,
2013-04-04 06:18:00,25.8,13.1,30.33,WSW,248,2.0,2.0,58,0.00,,,0.00,WUHU216HW,2013-04-04 10:18:00,
2013-04-04 06:22:00,25.8,12.7,30.34,SW,225,0.0,2.0,57,0.00,,,0.00,WUHU216HW,2013-04-04 10:22:00,
2013-04-04 06:23:00,25.8,13.1,30.34,SW,225,0.9,2.0,58,0.00,,,0.00,WUHU216HW,2013-04-04 10:23:00,
2013-04-04 06:27:00,25.8,13.5,30.34,SW,225,0.0,1.8,59,0.00,,,0.00,WUHU216HW,2013-04-04 10:27:00,
2013-04-04 06:28:00,25.8,13.5,30.34,SW,225,0.0,1.1,59,0.00,,,0.00,WUHU216HW,2013-04-04 10:28:00,
2013-04-04 06:29:00,25.8,13.5,30.34,SW,225,0.0,1.1,59,0.00,,,0.00,WUHU216HW,2013-04-04 10:29:00,
2013-04-04 06:32:00,26.0,14.0,30.34,South,180,0.7,1.3,60,0.00,,,0.00,WUHU216HW,2013-04-04 10:32:00,
2013-04-04 06:33:00,26.0,13.7,30.33,South,180,0.9,1.3,59,0.00,,,0.00,WUHU216HW,2013-04-04 10:33:00,
2013-04-04 06:34:00,26.0,13.7,30.33,South,180,0.9,1.3,59,0.00,,,0.00,WUHU216HW,2013-04-04 10:34:00,
2013-04-04 06:35:00,26.0,13.7,30.34,SSW,203,0.7,1.3,59,0.00,,,0.00,WUHU216HW,2013-04-04 10:35:00,
2013-04-04 06:37:00,25.8,13.5,30.34,SW,225,0.4,1.6,59,0.00,,,0.00,WUHU216HW,2013-04-04 10:37:00,
2013-04-04 06:38:00,26.0,13.7,30.34,SW,225,0.9,1.6,59,0.00,,,0.00,WUHU216HW,2013-04-04 10:38:00,
2013-04-04 06:39:00,25.8,13.5,30.33,SW,225,1.3,1.6,59,0.00,,,0.00,WUHU216HW,2013-04-04 10:39:00,
2013-04-04 06:40:00,26.0,13.7,30.33,SW,225,0.2,1.6,59,0.00,,,0.00,WUHU216HW,2013-04-04 10:40:00,
2013-04-04 06:42:00,26.0,13.7,30.33,SW,225,0.7,1.6,59,0.00,,,0.00,WUHU216HW,2013-04-04 10:42:00,
2013-04-04 06:43:00,25.8,13.9,30.34,SW,225,0.4,1.6,60,0.00,,,0.00,WUHU216HW,2013-04-04 10:43:00,
2013-04-04 06:44:00,25.8,13.9,30.34,SW,225,0.7,1.6,60,0.00,,,0.00,WUHU216HW,2013-04-04 10:44:00,
2013-04-04 06:45:00,25.8,13.9,30.34,SW,225,0.4,1.6,60,0.00,,,0.00,WUHU216HW,2013-04-04 10:45:00,
2013-04-04 06:48:00,25.6,13.7,30.34,SW,225,0.7,1.3,60,0.00,,,0.00,WUHU216HW,2013-04-04 10:48:00,
2013-04-04 06:49:00,25.6,13.7,30.34,SW,225,0.9,0.9,60,0.00,,,0.00,WUHU216HW,2013-04-04 10:49:00,
2013-04-04 06:50:00,25.6,13.7,30.34,SW,225,0.9,0.9,60,0.00,,,0.00,WUHU216HW,2013-04-04 10:50:00,
2013-04-04 06:53:00,25.6,13.7,30.34,WSW,248,1.3,1.3,60,0.00,,,0.00,WUHU216HW,2013-04-04 10:53:00,
2013-04-04 06:54:00,25.5,13.6,30.34,West,270,1.8,1.8,60,0.00,,,0.00,WUHU216HW,2013-04-04 10:54:00,
2013-04-04 06:55:00,25.5,13.6,30.34,West,270,1.8,1.8,60,0.00,,,0.00,WUHU216HW,2013-04-04 10:55:00,
2013-04-04 06:58:00,25.6,13.7,30.34,West,270,1.6,2.0,60,0.00,,,0.00,WUHU216HW,2013-04-04 10:58:00,
2013-04-04 06:59:00,25.6,13.7,30.34,West,270,1.1,2.0,60,0.00,,,0.00,WUHU216HW,2013-04-04 10:59:00,
2013-04-04 07:00:00,25.6,13.7,30.34,NW,315,1.3,2.0,60,0.00,,,0.00,WUHU216HW,2013-04-04 11:00:00,
2013-04-04 07:03:00,26.0,14.4,30.34,NNW,338,0.9,2.0,61,0.00,,,0.00,WUHU216HW,2013-04-04 11:03:00,
2013-04-04 07:05:00,26.0,14.4,30.34,NW,315,1.6,2.0,61,0.00,,,0.00,WUHU216HW,2013-04-04 11:05:00,
2013-04-04 07:08:00,26.0,14.0,30.34,NNW,338,0.4,1.8,60,0.00,,,0.00,WUHU216HW,2013-04-04 11:08:00,
2013-04-04 07:10:00,26.2,14.2,30.34,NNW,338,1.6,1.8,60,0.00,,,0.00,WUHU216HW,2013-04-04 11:10:00,
2013-04-04 07:11:00,26.2,14.2,30.34,NNW,338,1.6,1.8,60,0.00,,,0.00,WUHU216HW,2013-04-04 11:11:00,
2013-04-04 07:13:00,26.0,14.0,30.34,NNW,338,1.1,1.6,60,0.00,,,0.00,WUHU216HW,2013-04-04 11:13:00,
2013-04-04 07:16:00,26.0,14.4,30.34,NNW,338,1.3,1.6,61,0.00,,,0.00,WUHU216HW,2013-04-04 11:16:00,
2013-04-04 07:18:00,26.2,14.6,30.34,NNW,338,1.1,2.2,61,0.00,,,0.00,WUHU216HW,2013-04-04 11:18:00,
2013-04-04 07:20:00,26.4,14.8,30.34,NW,315,0.4,2.2,61,0.00,,,0.00,WUHU216HW,2013-04-04 11:20:00,
2013-04-04 07:21:00,26.4,14.8,30.34,NW,315,0.4,2.2,61,0.00,,,0.00,WUHU216HW,2013-04-04 11:21:00,
2013-04-04 07:23:00,26.5,14.9,30.34,WNW,293,0.4,2.2,61,0.00,,,0.00,WUHU216HW,2013-04-04 11:23:00,
2013-04-04 07:25:00,26.7,15.5,30.34,NW,315,1.8,2.9,62,0.00,,,0.00,WUHU216HW,2013-04-04 11:25:00,
2013-04-04 07:26:00,26.7,15.5,30.34,NW,315,1.8,2.9,62,0.00,,,0.00,WUHU216HW,2013-04-04 11:26:00,
2013-04-04 07:27:00,27.1,15.5,30.35,WSW,248,0.4,2.9,61,0.00,,,0.00,WUHU216HW,2013-04-04 11:27:00,
2013-04-04 07:29:00,27.3,15.7,30.35,West,270,1.8,2.9,61,0.00,,,0.00,WUHU216HW,2013-04-04 11:29:00,
2013-04-04 07:31:00,27.4,16.1,30.35,WNW,293,1.3,2.9,62,0.00,,,0.00,WUHU216HW,2013-04-04 11:31:00,
2013-04-04 07:32:00,27.8,16.1,30.35,West,270,0.7,2.9,61,0.00,,,0.00,WUHU216HW,2013-04-04 11:32:00,
2013-04-04 07:34:00,28.2,16.5,30.35,WNW,293,1.1,1.8,61,0.00,,,0.00,WUHU216HW,2013-04-04 11:34:00,
2013-04-04 07:37:00,28.3,16.2,30.35,SW,225,0.4,1.8,60,0.00,,,0.00,WUHU216HW,2013-04-04 11:37:00,
2013-04-04 07:39:00,28.9,16.8,30.36,SW,225,1.6,2.9,60,0.00,,,0.00,WUHU216HW,2013-04-04 11:39:00,
2013-04-04 07:42:00,28.9,16.8,30.36,West,270,2.5,2.9,60,0.00,,,0.00,WUHU216HW,2013-04-04 11:42:00,
2013-04-04 07:45:00,29.2,16.7,30.36,WNW,293,0.4,2.9,59,0.00,,,0.00,WUHU216HW,2013-04-04 11:45:00,
2013-04-04 07:47:00,29.4,16.9,30.36,West,270,2.5,2.5,59,0.00,,,0.00,WUHU216HW,2013-04-04 11:47:00,
2013-04-04 07:50:00,29.6,16.7,30.36,West,270,6.0,6.3,58,0.00,,,0.00,WUHU216HW,2013-04-04 11:50:00,
2013-04-04 07:52:00,30.1,16.7,30.36,WNW,293,3.4,6.3,57,0.00,,,0.00,WUHU216HW,2013-04-04 11:52:00,
2013-04-04 07:55:00,30.3,16.9,30.36,North,0,1.1,6.3,57,0.00,,,0.00,WUHU216HW,2013-04-04 11:55:00,
2013-04-04 07:57:00,30.5,17.1,30.36,NNW,338,1.8,6.3,57,0.00,,,0.00,WUHU216HW,2013-04-04 11:57:00,
2013-04-04 07:58:00,30.5,17.1,30.36,NNW,338,1.8,6.3,57,0.00,,,0.00,WUHU216HW,2013-04-04 11:58:00,
2013-04-04 08:00:00,30.7,17.3,30.36,NW,315,1.6,3.4,57,0.00,,,0.00,WUHU216HW,2013-04-04 12:00:00,
2013-04-04 08:02:00,30.9,17.5,30.36,NNW,338,0.2,2.5,57,0.00,,,0.00,WUHU216HW,2013-04-04 12:02:00,
2013-04-04 08:03:00,30.9,17.5,30.36,NNW,338,0.2,2.5,57,0.00,,,0.00,WUHU216HW,2013-04-04 12:03:00,
2013-04-04 08:05:00,31.0,17.1,30.36,NNW,338,2.0,3.4,56,0.00,,,0.00,WUHU216HW,2013-04-04 12:05:00,
2013-04-04 08:07:00,31.0,17.1,30.36,West,270,2.7,3.4,56,0.00,,,0.00,WUHU216HW,2013-04-04 12:07:00,
2013-04-04 08:08:00,31.0,17.1,30.36,West,270,2.7,3.4,56,0.00,,,0.00,WUHU216HW,2013-04-04 12:08:00,
2013-04-04 08:10:00,31.2,17.3,30.36,NNW,338,4.7,4.7,56,0.00,,,0.00,WUHU216HW,2013-04-04 12:10:00,
2013-04-04 08:12:00,31.4,17.5,30.36,North,0,2.2,4.7,56,0.00,,,0.00,WUHU216HW,2013-04-04 12:12:00,
2013-04-04 08:13:00,31.4,17.5,30.36,North,0,2.2,4.7,56,0.00,,,0.00,WUHU216HW,2013-04-04 12:13:00,
2013-04-04 08:15:00,31.4,17.5,30.36,North,0,1.8,4.7,56,0.00,,,0.00,WUHU216HW,2013-04-04 12:15:00,
2013-04-04 08:16:00,31.3,17.5,30.36,West,270,2.9,2.9,56,0.00,,,0.00,WUHU216HW,2013-04-04 12:16:00,
2013-04-04 08:18:00,31.3,17.5,30.36,West,270,2.9,4.7,56,0.00,,,0.00,WUHU216HW,2013-04-04 12:18:00,
2013-04-04 08:20:00,31.3,17.5,30.36,West,270,2.9,4.3,56,0.00,,,0.00,WUHU216HW,2013-04-04 12:20:00,
2013-04-04 08:23:00,31.3,17.5,30.36,West,270,2.9,2.9,56,0.00,,,0.00,WUHU216HW,2013-04-04 12:23:00,
2013-04-04 08:25:00,31.3,17.5,30.36,West,270,2.9,2.9,56,0.00,,,0.00,WUHU216HW,2013-04-04 12:25:00,
2013-04-04 08:47:00,33.9,18.6,30.35,NW,315,2.5,2.5,53,0.00,,,0.00,WUHU216HW,2013-04-04 12:47:00,
2013-04-04 08:52:00,34.4,18.6,30.35,North,0,1.6,2.9,52,0.00,,,0.00,WUHU216HW,2013-04-04 12:52:00,
2013-04-04 08:53:00,34.4,18.6,30.35,North,0,1.6,2.9,52,0.00,,,0.00,WUHU216HW,2013-04-04 12:53:00,
2013-04-04 08:57:00,34.4,18.1,30.34,North,0,2.5,3.6,51,0.00,,,0.00,WUHU216HW,2013-04-04 12:57:00,
2013-04-04 08:58:00,34.4,18.1,30.34,North,0,1.8,3.6,51,0.00,,,0.00,WUHU216HW,2013-04-04 12:58:00,
2013-04-04 09:02:00,34.4,18.1,30.34,NNW,338,2.5,3.6,51,0.00,,,0.00,WUHU216HW,2013-04-04 13:02:00,
2013-04-04 09:03:00,34.4,18.1,30.34,NW,315,1.6,3.6,51,0.00,,,0.00,WUHU216HW,2013-04-04 13:03:00,
2013-04-04 09:04:00,34.6,18.3,30.34,NW,315,3.1,3.1,51,0.00,,,0.00,WUHU216HW,2013-04-04 13:04:00,
2013-04-04 09:08:00,35.2,18.8,30.34,North,0,2.0,3.1,51,0.00,,,0.00,WUHU216HW,2013-04-04 13:08:00,
2013-04-04 09:10:00,35.3,18.4,30.34,NNW,338,3.4,3.4,50,0.00,,,0.00,WUHU216HW,2013-04-04 13:10:00,
2013-04-04 09:13:00,35.5,18.6,30.34,North,0,2.5,3.4,50,0.00,,,0.00,WUHU216HW,2013-04-04 13:13:00,
2013-04-04 09:15:00,35.4,18.1,30.34,NNE,23,1.8,3.8,49,0.00,,,0.00,WUHU216HW,2013-04-04 13:15:00,
2013-04-04 09:18:00,35.8,18.5,30.34,NW,315,4.7,4.7,49,0.00,,,0.00,WUHU216HW,2013-04-04 13:18:00,
2013-04-04 09:19:00,35.8,18.4,30.34,NNW,338,2.5,4.7,49,0.00,,,0.00,WUHU216HW,2013-04-04 13:19:00,
2013-04-04 09:20:00,36.0,18.6,30.34,NNW,338,2.5,4.7,49,0.00,,,0.00,WUHU216HW,2013-04-04 13:20:00,
2013-04-04 09:23:00,36.5,19.1,30.34,NNW,338,3.1,4.7,49,0.00,,,0.00,WUHU216HW,2013-04-04 13:23:00,
2013-04-04 09:25:00,36.5,18.6,30.34,North,0,1.8,4.7,48,0.00,,,0.00,WUHU216HW,2013-04-04 13:25:00,
2013-04-04 09:28:00,36.1,18.2,30.34,SSE,158,0.9,3.1,48,0.00,,,0.00,WUHU216HW,2013-04-04 13:28:00,
2013-04-04 09:30:00,36.3,18.4,30.34,South,180,2.0,3.1,48,0.00,,,0.00,WUHU216HW,2013-04-04 13:30:00,
2013-04-04 09:33:00,36.9,18.9,30.34,SW,225,1.3,2.0,48,0.00,,,0.00,WUHU216HW,2013-04-04 13:33:00,
2013-04-04 09:34:00,37.2,19.7,30.34,NNW,338,3.4,3.4,49,0.00,,,0.00,WUHU216HW,2013-04-04 13:34:00,
2013-04-04 09:35:00,37.4,19.9,30.34,North,0,1.1,3.4,49,0.00,,,0.00,WUHU216HW,2013-04-04 13:35:00,
2013-04-04 09:36:00,37.4,19.9,30.34,North,0,1.1,3.4,49,0.00,,,0.00,WUHU216HW,2013-04-04 13:36:00,
2013-04-04 09:38:00,38.1,20.5,30.34,SW,225,2.0,3.4,49,0.00,,,0.00,WUHU216HW,2013-04-04 13:38:00,
2013-04-04 09:40:00,38.3,20.7,30.34,West,270,3.4,3.4,49,0.00,,,0.00,WUHU216HW,2013-04-04 13:40:00,
2013-04-04 09:42:00,38.5,20.4,30.34,West,270,3.6,3.6,48,0.00,,,0.00,WUHU216HW,2013-04-04 13:42:00,
2013-04-04 09:43:00,38.4,20.4,30.33,NW,315,1.6,3.6,48,0.00,,,0.00,WUHU216HW,2013-04-04 13:43:00,
2013-04-04 09:45:00,38.6,20.5,30.34,WSW,248,1.6,3.6,48,0.00,,,0.00,WUHU216HW,2013-04-04 13:45:00,
2013-04-04 09:47:00,38.7,20.6,30.34,ESE,113,2.9,3.6,48,0.00,,,0.00,WUHU216HW,2013-04-04 13:47:00,
2013-04-04 09:49:00,38.7,19.6,30.33,East,90,1.1,3.6,46,0.00,,,0.00,WUHU216HW,2013-04-04 13:49:00,
2013-04-04 09:50:00,38.7,19.6,30.34,NNE,23,1.1,3.6,46,0.00,,,0.00,WUHU216HW,2013-04-04 13:50:00,
2013-04-04 09:52:00,38.6,19.5,30.33,NNE,23,2.7,2.9,46,0.00,,,0.00,WUHU216HW,2013-04-04 13:52:00,
2013-04-04 09:54:00,38.0,18.4,30.34,North,0,2.5,2.9,45,0.00,,,0.00,WUHU216HW,2013-04-04 13:54:00,
2013-04-04 09:55:00,37.8,18.2,30.33,NNE,23,3.1,3.1,45,0.00,,,0.00,WUHU216HW,2013-04-04 13:55:00,
2013-04-04 09:57:00,37.7,18.1,30.33,East,90,0.9,3.1,45,0.00,,,0.00,WUHU216HW,2013-04-04 13:57:00,
2013-04-04 10:00:00,38.0,18.4,30.33,NNE,23,0.7,3.4,45,0.00,,,0.00,WUHU216HW,2013-04-04 14:00:00,
2013-04-04 10:02:00,38.6,20.0,30.33,WNW,293,1.3,3.4,47,0.00,,,0.00,WUHU216HW,2013-04-04 14:02:00,
2013-04-04 10:05:00,38.7,20.1,30.33,WSW,248,3.1,3.4,47,0.00,,,0.00,WUHU216HW,2013-04-04 14:05:00,
2013-04-04 10:08:00,38.9,19.7,30.34,WNW,293,2.9,4.0,46,0.00,,,0.00,WUHU216HW,2013-04-04 14:08:00,
2013-04-04 10:10:00,39.1,19.9,30.34,South,180,2.7,4.0,46,0.00,,,0.00,WUHU216HW,2013-04-04 14:10:00,
2013-04-04 10:11:00,39.3,19.5,30.34,SSE,158,5.4,5.4,45,0.00,,,0.00,WUHU216HW,2013-04-04 14:11:00,
2013-04-04 10:13:00,39.2,18.5,30.34,SW,225,3.4,5.4,43,0.00,,,0.00,WUHU216HW,2013-04-04 14:13:00,
2013-04-04 10:15:00,39.4,19.2,30.34,SW,225,5.4,5.4,44,0.00,,,0.00,WUHU216HW,2013-04-04 14:15:00,
2013-04-04 10:16:00,39.4,19.2,30.34,WSW,248,3.4,5.4,44,0.00,,,0.00,WUHU216HW,2013-04-04 14:16:00,
2013-04-04 10:17:00,39.4,19.2,30.34,WSW,248,3.4,5.4,44,0.00,,,0.00,WUHU216HW,2013-04-04 14:17:00,
2013-04-04 10:18:00,39.9,20.2,30.34,NW,315,3.4,5.4,45,0.00,,,0.00,WUHU216HW,2013-04-04 14:18:00,
2013-04-04 10:20:00,40.3,20.5,30.33,North,0,0.4,5.4,45,0.00,,,0.00,WUHU216HW,2013-04-04 14:20:00,
2013-04-04 10:21:00,40.3,20.0,30.34,SSE,158,1.8,5.4,44,0.00,,,0.00,WUHU216HW,2013-04-04 14:21:00,
2013-04-04 10:22:00,40.4,20.1,30.33,South,180,4.7,5.4,44,0.00,,,0.00,WUHU216HW,2013-04-04 14:22:00,
2013-04-04 10:24:00,40.4,20.1,30.33,SSE,158,4.5,5.4,44,0.00,,,0.00,WUHU216HW,2013-04-04 14:24:00,
2013-04-04 10:25:00,40.6,19.1,30.33,WSW,248,4.3,4.7,42,0.00,,,0.00,WUHU216HW,2013-04-04 14:25:00,
2013-04-04 10:26:00,40.4,19.5,30.33,NW,315,4.0,4.7,43,0.00,,,0.00,WUHU216HW,2013-04-04 14:26:00,
2013-04-04 10:27:00,40.4,19.5,30.33,West,270,4.7,4.7,43,0.00,,,0.00,WUHU216HW,2013-04-04 14:27:00,
2013-04-04 10:29:00,40.6,20.2,30.34,SW,225,2.5,4.7,44,0.00,,,0.00,WUHU216HW,2013-04-04 14:29:00,
2013-04-04 10:32:00,41.2,21.3,30.33,South,180,3.8,4.7,45,0.00,,,0.00,WUHU216HW,2013-04-04 14:32:00,
2013-04-04 10:33:00,41.5,21.6,30.33,SSW,203,4.0,4.7,45,0.00,,,0.00,WUHU216HW,2013-04-04 14:33:00,
2013-04-04 10:34:00,41.9,20.3,30.33,South,180,4.5,4.7,42,0.00,,,0.00,WUHU216HW,2013-04-04 14:34:00,
2013-04-04 10:37:00,42.2,20.5,30.33,East,90,4.0,5.4,42,0.00,,,0.00,WUHU216HW,2013-04-04 14:37:00,
2013-04-04 10:38:00,42.4,20.1,30.33,SSE,158,9.6,9.6,41,0.00,,,0.00,WUHU216HW,2013-04-04 14:38:00,
2013-04-04 10:39:00,42.4,19.5,30.33,SW,225,6.3,9.6,40,0.00,,,0.00,WUHU216HW,2013-04-04 14:39:00,
2013-04-04 10:42:00,42.4,20.7,30.33,SW,225,3.1,9.6,42,0.00,,,0.00,WUHU216HW,2013-04-04 14:42:00,
2013-04-04 10:43:00,42.4,20.1,30.33,WSW,248,4.7,9.6,41,0.00,,,0.00,WUHU216HW,2013-04-04 14:43:00,
2013-04-04 10:44:00,42.4,19.5,30.33,West,270,3.8,9.6,40,0.00,,,0.00,WUHU216HW,2013-04-04 14:44:00,
2013-04-04 10:47:00,42.7,21.1,30.33,East,90,4.5,9.6,42,0.00,,,0.00,WUHU216HW,2013-04-04 14:47:00,
2013-04-04 10:48:00,42.7,21.1,30.33,East,90,4.5,9.6,42,0.00,,,0.00,WUHU216HW,2013-04-04 14:48:00,
2013-04-04 10:50:00,43.0,21.3,30.32,South,180,1.8,5.4,42,0.00,,,0.00,WUHU216HW,2013-04-04 14:50:00,
2013-04-04 10:52:00,43.6,20.7,30.32,NNE,23,2.0,5.4,40,0.00,,,0.00,WUHU216HW,2013-04-04 14:52:00,
2013-04-04 10:53:00,43.6,20.7,30.32,NNE,23,2.0,5.4,40,0.00,,,0.00,WUHU216HW,2013-04-04 14:53:00,
2013-04-04 10:55:00,43.6,20.7,30.33,South,180,3.4,5.4,40,0.00,,,0.00,WUHU216HW,2013-04-04 14:55:00,
2013-04-04 10:57:00,43.6,20.7,30.33,South,180,3.4,5.8,40,0.00,,,0.00,WUHU216HW,2013-04-04 14:57:00,
2013-04-04 10:58:00,43.6,20.7,30.33,South,180,3.4,5.8,40,0.00,,,0.00,WUHU216HW,2013-04-04 14:58:00,
2013-04-04 10:59:00,43.4,20.5,30.33,SSE,158,4.0,5.8,40,0.00,,,0.00,WUHU216HW,2013-04-04 14:59:00,
2013-04-04 11:00:00,43.4,20.5,30.33,SE,135,1.6,5.8,40,0.00,,,0.00,WUHU216HW,2013-04-04 15:00:00,
2013-04-04 11:03:00,43.4,19.9,30.32,WNW,293,1.3,5.8,39,0.00,,,0.00,WUHU216HW,2013-04-04 15:03:00,
2013-04-04 11:04:00,43.4,19.9,30.32,WNW,293,1.3,5.8,39,0.00,,,0.00,WUHU216HW,2013-04-04 15:04:00,
2013-04-04 11:05:00,43.4,20.5,30.32,North,0,3.4,4.0,40,0.00,,,0.00,WUHU216HW,2013-04-04 15:05:00,
2013-04-04 11:08:00,43.4,20.5,30.32,SW,225,3.6,4.3,40,0.00,,,0.00,WUHU216HW,2013-04-04 15:08:00,
2013-04-04 11:09:00,43.4,19.9,30.32,WNW,293,3.6,4.3,39,0.00,,,0.00,WUHU216HW,2013-04-04 15:09:00,
2013-04-04 11:10:00,43.4,20.5,30.32,WSW,248,2.7,4.3,40,0.00,,,0.00,WUHU216HW,2013-04-04 15:10:00,
2013-04-04 11:13:00,43.6,20.6,30.32,South,180,3.4,4.3,40,0.00,,,0.00,WUHU216HW,2013-04-04 15:13:00,
2013-04-04 11:14:00,43.6,19.4,30.32,SE,135,6.7,6.7,38,0.00,,,0.00,WUHU216HW,2013-04-04 15:14:00,
2013-04-04 11:15:00,43.8,20.2,30.32,SE,135,2.5,6.7,39,0.00,,,0.00,WUHU216HW,2013-04-04 15:15:00,
2013-04-04 11:18:00,43.9,19.7,30.32,SSW,203,2.5,6.7,38,0.00,,,0.00,WUHU216HW,2013-04-04 15:18:00,
2013-04-04 11:19:00,43.8,19.6,30.32,WSW,248,3.1,6.7,38,0.00,,,0.00,WUHU216HW,2013-04-04 15:19:00,
2013-04-04 11:21:00,43.6,19.4,30.32,SSE,158,6.9,6.9,38,0.00,,,0.00,WUHU216HW,2013-04-04 15:21:00,
2013-04-04 11:24:00,43.5,20.0,30.32,South,180,3.8,6.9,39,0.00,,,0.00,WUHU216HW,2013-04-04 15:24:00,
2013-04-04 11:25:00,43.7,20.2,30.32,South,180,5.4,6.9,39,0.00,,,0.00,WUHU216HW,2013-04-04 15:25:00,
2013-04-04 11:26:00,43.7,19.6,30.32,SSW,203,4.7,6.9,38,0.00,,,0.00,WUHU216HW,2013-04-04 15:26:00,
2013-04-04 11:29:00,44.0,20.4,30.32,SW,225,5.4,6.9,39,0.00,,,0.00,WUHU216HW,2013-04-04 15:29:00,
2013-04-04 11:30:00,44.0,20.4,30.32,SW,225,5.4,5.4,39,0.00,,,0.00,WUHU216HW,2013-04-04 15:30:00,
2013-04-04 11:31:00,44.0,20.4,30.32,SSW,203,2.7,5.4,39,0.00,,,0.00,WUHU216HW,2013-04-04 15:31:00,
2013-04-04 11:33:00,44.6,19.1,30.31,East,90,3.6,5.4,36,0.00,,,0.00,WUHU216HW,2013-04-04 15:33:00,
2013-04-04 11:34:00,44.4,19.5,30.31,ESE,113,2.5,5.4,37,0.00,,,0.00,WUHU216HW,2013-04-04 15:34:00,
2013-04-04 11:35:00,44.2,19.4,30.31,SE,135,1.8,5.4,37,0.00,,,0.00,WUHU216HW,2013-04-04 15:35:00,
2013-04-04 11:36:00,44.2,19.4,30.31,SE,135,1.8,5.4,37,0.00,,,0.00,WUHU216HW,2013-04-04 15:36:00,
2013-04-04 11:38:00,44.4,20.2,30.31,North,0,4.5,6.9,38,0.00,,,0.00,WUHU216HW,2013-04-04 15:38:00,
2013-04-04 11:40:00,44.4,19.5,30.31,SSW,203,1.1,6.9,37,0.00,,,0.00,WUHU216HW,2013-04-04 15:40:00,
2013-04-04 11:41:00,44.6,19.1,30.31,SSE,158,2.9,6.9,36,0.00,,,0.00,WUHU216HW,2013-04-04 15:41:00,
2013-04-04 11:45:00,44.7,20.4,30.31,East,90,2.7,6.9,38,0.00,,,0.00,WUHU216HW,2013-04-04 15:45:00,
2013-04-04 11:47:00,44.7,19.8,30.30,SW,225,3.1,6.9,37,0.00,,,0.00,WUHU216HW,2013-04-04 15:47:00,
2013-04-04 11:50:00,45.5,21.1,30.30,SE,135,2.2,6.7,38,0.00,,,0.00,WUHU216HW,2013-04-04 15:50:00,
2013-04-04 11:51:00,45.5,21.1,30.30,SE,135,2.2,6.7,38,0.00,,,0.00,WUHU216HW,2013-04-04 15:51:00,
2013-04-04 11:52:00,45.5,21.1,30.30,SSW,203,2.2,6.7,38,0.00,,,0.00,WUHU216HW,2013-04-04 15:52:00,
2013-04-04 11:55:00,45.5,21.1,30.30,East,90,3.4,7.6,38,0.00,,,0.00,WUHU216HW,2013-04-04 15:55:00,
2013-04-04 11:56:00,45.5,21.1,30.30,East,90,3.4,7.6,38,0.00,,,0.00,WUHU216HW,2013-04-04 15:56:00,
2013-04-04 11:58:00,45.5,20.5,30.29,South,180,5.6,7.6,37,0.00,,,0.00,WUHU216HW,2013-04-04 15:58:00,
2013-04-04 12:01:00,45.3,20.3,30.29,South,180,6.3,7.6,37,0.00,,,0.00,WUHU216HW,2013-04-04 16:01:00,
2013-04-04 12:02:00,45.3,20.3,30.29,SSW,203,2.7,7.6,37,0.00,,,0.00,WUHU216HW,2013-04-04 16:02:00,
2013-04-04 12:03:00,45.5,21.1,30.29,North,0,2.0,6.3,38,0.00,,,0.00,WUHU216HW,2013-04-04 16:03:00,
2013-04-04 12:07:00,45.6,21.2,30.29,SSW,203,3.4,6.3,38,0.00,,,0.00,WUHU216HW,2013-04-04 16:07:00,
2013-04-04 12:08:00,45.7,21.4,30.29,SSE,158,2.7,6.3,38,0.00,,,0.00,WUHU216HW,2013-04-04 16:08:00,
2013-04-04 12:12:00,46.4,21.3,30.29,South,180,5.6,5.6,37,0.00,,,0.00,WUHU216HW,2013-04-04 16:12:00,
2013-04-04 12:13:00,46.6,22.2,30.29,SSW,203,3.6,5.6,38,0.00,,,0.00,WUHU216HW,2013-04-04 16:13:00,
2013-04-04 12:17:00,47.9,22.7,30.29,South,180,3.4,5.6,37,0.00,,,0.00,WUHU216HW,2013-04-04 16:17:00,
2013-04-04 12:18:00,47.9,22.7,30.29,South,180,3.4,5.6,37,0.00,,,0.00,WUHU216HW,2013-04-04 16:18:00,
2013-04-04 12:19:00,48.2,22.9,30.29,SSE,158,3.4,5.6,37,0.00,,,0.00,WUHU216HW,2013-04-04 16:19:00,
2013-04-04 12:23:00,48.4,22.5,30.28,ESE,113,1.1,6.0,36,0.00,,,0.00,WUHU216HW,2013-04-04 16:23:00,
2013-04-04 12:24:00,48.4,22.4,30.28,SSW,203,2.9,6.0,36,0.00,,,0.00,WUHU216HW,2013-04-04 16:24:00,
2013-04-04 12:25:00,48.2,22.9,30.28,SSW,203,2.9,6.0,37,0.00,,,0.00,WUHU216HW,2013-04-04 16:25:00,
2013-04-04 12:28:00,48.1,20.1,30.28,SSE,158,5.8,6.9,33,0.00,,,0.00,WUHU216HW,2013-04-04 16:28:00,
2013-04-04 12:29:00,48.1,20.8,30.28,South,180,8.9,8.9,34,0.00,,,0.00,WUHU216HW,2013-04-04 16:29:00,
2013-04-04 12:30:00,48.1,21.5,30.28,South,180,3.4,8.9,35,0.00,,,0.00,WUHU216HW,2013-04-04 16:30:00,
2013-04-04 12:33:00,48.2,22.3,30.28,SSE,158,1.1,8.9,36,0.00,,,0.00,WUHU216HW,2013-04-04 16:33:00,
2013-04-04 12:35:00,48.2,21.6,30.27,SW,225,2.5,8.9,35,0.00,,,0.00,WUHU216HW,2013-04-04 16:35:00,
2013-04-04 12:38:00,48.1,20.1,30.27,SSW,203,2.5,8.9,33,0.00,,,0.00,WUHU216HW,2013-04-04 16:38:00,
2013-04-04 12:40:00,47.9,20.6,30.27,SSW,203,4.0,4.9,34,0.00,,,0.00,WUHU216HW,2013-04-04 16:40:00,
2013-04-04 12:44:00,47.9,20.6,30.27,SSW,203,4.9,4.9,34,0.00,,,0.00,WUHU216HW,2013-04-04 16:44:00,
2013-04-04 12:45:00,48.1,20.8,30.27,SSE,158,4.5,4.9,34,0.00,,,0.00,WUHU216HW,2013-04-04 16:45:00,
2013-04-04 12:46:00,48.1,20.8,30.27,SSE,158,4.5,4.9,34,0.00,,,0.00,WUHU216HW,2013-04-04 16:46:00,
2013-04-04 12:47:00,48.1,21.5,30.27,SSE,158,2.5,4.9,35,0.00,,,0.00,WUHU216HW,2013-04-04 16:47:00,
2013-04-04 12:50:00,48.1,20.1,30.27,SE,135,2.0,4.9,33,0.00,,,0.00,WUHU216HW,2013-04-04 16:50:00,
2013-04-04 12:52:00,48.2,22.2,30.26,West,270,4.3,4.9,36,0.00,,,0.00,WUHU216HW,2013-04-04 16:52:00,
2013-04-04 12:55:00,48.8,20.7,30.26,SSE,158,1.8,6.5,33,0.00,,,0.00,WUHU216HW,2013-04-04 16:55:00,
2013-04-04 12:57:00,49.0,21.6,30.26,SW,225,6.9,7.6,34,0.00,,,0.00,WUHU216HW,2013-04-04 16:57:00,
2013-04-04 13:00:00,48.4,18.9,30.26,SW,225,3.4,7.6,31,0.00,,,0.00,WUHU216HW,2013-04-04 17:00:00,
2013-04-04 13:01:00,48.4,18.9,30.26,SW,225,3.4,7.6,31,0.00,,,0.00,WUHU216HW,2013-04-04 17:01:00,
2013-04-04 13:02:00,48.6,20.5,30.26,South,180,4.0,7.6,33,0.00,,,0.00,WUHU216HW,2013-04-04 17:02:00,
2013-04-04 13:06:00,48.6,20.5,30.26,SW,225,4.7,7.6,33,0.00,,,0.00,WUHU216HW,2013-04-04 17:06:00,
2013-04-04 13:07:00,48.6,20.5,30.26,SW,225,4.7,6.9,33,0.00,,,0.00,WUHU216HW,2013-04-04 17:07:00,
2013-04-04 13:11:00,48.6,20.5,30.26,SW,225,4.7,4.7,33,0.00,,,0.00,WUHU216HW,2013-04-04 17:11:00,
2013-04-04 13:33:00,50.5,20.8,30.25,South,180,8.1,8.1,31,0.00,,,0.00,WUHU216HW,2013-04-04 17:33:00,
2013-04-04 13:38:00,50.7,20.9,30.24,South,180,2.5,8.1,31,0.00,,,0.00,WUHU216HW,2013-04-04 17:38:00,
2013-04-04 13:43:00,50.7,20.2,30.24,SSE,158,4.5,7.6,30,0.00,,,0.00,WUHU216HW,2013-04-04 17:43:00,
2013-04-04 13:48:00,51.0,21.2,30.23,South,180,11.4,11.4,31,0.00,,,0.00,WUHU216HW,2013-04-04 17:48:00,
2013-04-04 13:49:00,51.0,20.4,30.23,South,180,6.9,11.4,30,0.00,,,0.00,WUHU216HW,2013-04-04 17:49:00,
2013-04-04 13:50:00,51.0,20.4,30.24,South,180,6.0,11.4,30,0.00,,,0.00,WUHU216HW,2013-04-04 17:50:00,
2013-04-04 13:53:00,51.0,19.6,30.23,SSW,203,4.5,11.4,29,0.00,,,0.00,WUHU216HW,2013-04-04 17:53:00,
2013-04-04 13:54:00,51.0,20.4,30.23,SW,225,4.3,11.4,30,0.00,,,0.00,WUHU216HW,2013-04-04 17:54:00,
2013-04-04 13:55:00,51.0,19.6,30.23,SW,225,2.2,11.4,29,0.00,,,0.00,WUHU216HW,2013-04-04 17:55:00,
2013-04-04 13:58:00,51.4,20.8,30.23,NNW,338,1.6,6.9,30,0.00,,,0.00,WUHU216HW,2013-04-04 17:58:00,
2013-04-04 13:59:00,51.4,20.8,30.23,SSE,158,6.9,6.9,30,0.00,,,0.00,WUHU216HW,2013-04-04 17:59:00,
2013-04-04 14:00:00,51.6,20.2,30.23,SE,135,5.4,6.9,29,0.00,,,0.00,WUHU216HW,2013-04-04 18:00:00,
2013-04-04 14:04:00,51.7,21.0,30.23,SSW,203,4.0,6.9,30,0.00,,,0.00,WUHU216HW,2013-04-04 18:04:00,
2013-04-04 14:05:00,51.7,21.0,30.23,SSW,203,4.0,6.9,30,0.00,,,0.00,WUHU216HW,2013-04-04 18:05:00,
2013-04-04 14:09:00,52.3,19.9,30.23,SSE,158,8.1,8.1,28,0.00,,,0.00,WUHU216HW,2013-04-04 18:09:00,
2013-04-04 14:10:00,52.3,19.9,30.23,SSE,158,8.1,8.1,28,0.00,,,0.00,WUHU216HW,2013-04-04 18:10:00,
2013-04-04 14:14:00,51.7,20.2,30.22,SSW,203,6.7,8.1,29,0.00,,,0.00,WUHU216HW,2013-04-04 18:14:00,
2013-04-04 14:15:00,51.7,20.2,30.22,SSW,203,6.7,8.1,29,0.00,,,0.00,WUHU216HW,2013-04-04 18:15:00,
2013-04-04 14:20:00,52.3,20.8,30.22,SW,225,6.9,7.6,29,0.00,,,0.00,WUHU216HW,2013-04-04 18:20:00,
2013-04-04 14:25:00,52.6,21.0,30.21,SSW,203,6.7,7.6,29,0.00,,,0.00,WUHU216HW,2013-04-04 18:25:00,
2013-04-04 14:26:00,52.6,21.0,30.21,SSW,203,6.7,7.6,29,0.00,,,0.00,WUHU216HW,2013-04-04 18:26:00,
2013-04-04 14:27:00,52.8,22.0,30.21,SE,135,1.8,7.6,30,0.00,,,0.00,WUHU216HW,2013-04-04 18:27:00,
2013-04-04 14:30:00,52.8,21.2,30.21,SSW,203,4.0,7.4,29,0.00,,,0.00,WUHU216HW,2013-04-04 18:30:00,
2013-04-04 14:31:00,52.8,21.2,30.21,SSW,203,4.0,7.4,29,0.00,,,0.00,WUHU216HW,2013-04-04 18:31:00,
2013-04-04 14:32:00,52.6,20.2,30.21,SSW,203,5.4,7.4,28,0.00,,,0.00,WUHU216HW,2013-04-04 18:32:00,
2013-04-04 14:36:00,52.6,21.8,30.21,WSW,248,2.7,7.2,30,0.00,,,0.00,WUHU216HW,2013-04-04 18:36:00,
2013-04-04 14:37:00,53.0,21.4,30.21,SSE,158,3.8,7.2,29,0.00,,,0.00,WUHU216HW,2013-04-04 18:37:00,
2013-04-04 14:41:00,53.2,20.7,30.20,SE,135,3.4,7.4,28,0.00,,,0.00,WUHU216HW,2013-04-04 18:41:00,
2013-04-04 14:42:00,53.4,21.7,30.20,SW,225,3.8,7.4,29,0.00,,,0.00,WUHU216HW,2013-04-04 18:42:00,
2013-04-04 14:43:00,53.5,21.0,30.20,South,180,2.9,7.4,28,0.00,,,0.00,WUHU216HW,2013-04-04 18:43:00,
2013-04-04 14:46:00,53.7,20.3,30.20,SSE,158,6.7,7.4,27,0.00,,,0.00,WUHU216HW,2013-04-04 18:46:00,
2013-04-04 14:47:00,53.7,20.3,30.20,South,180,5.4,7.4,27,0.00,,,0.00,WUHU216HW,2013-04-04 18:47:00,
2013-04-04 14:48:00,53.5,21.0,30.20,SSW,203,3.8,7.4,28,0.00,,,0.00,WUHU216HW,2013-04-04 18:48:00,
2013-04-04 14:51:00,53.4,20.1,30.20,South,180,9.2,9.4,27,0.00,,,0.00,WUHU216HW,2013-04-04 18:51:00,
2013-04-04 14:52:00,53.4,20.1,30.19,SSW,203,8.3,9.4,27,0.00,,,0.00,WUHU216HW,2013-04-04 18:52:00,
2013-04-04 14:53:00,53.4,20.1,30.19,SSW,203,11.9,11.9,27,0.00,,,0.00,WUHU216HW,2013-04-04 18:53:00,
2013-04-04 14:57:00,53.0,19.7,30.19,South,180,3.4,11.9,27,0.00,,,0.00,WUHU216HW,2013-04-04 18:57:00,
2013-04-04 14:58:00,53.0,20.6,30.19,SSW,203,6.9,11.9,28,0.00,,,0.00,WUHU216HW,2013-04-04 18:58:00,
2013-04-04 15:02:00,53.4,18.3,30.19,SSW,203,6.7,11.9,25,0.00,,,0.00,WUHU216HW,2013-04-04 19:02:00,
2013-04-04 15:03:00,53.4,20.1,30.18,SW,225,5.6,10.7,27,0.00,,,0.00,WUHU216HW,2013-04-04 19:03:00,
2013-04-04 15:07:00,53.7,21.2,30.18,WSW,248,2.7,10.7,28,0.00,,,0.00,WUHU216HW,2013-04-04 19:07:00,
2013-04-04 15:08:00,53.9,20.5,30.18,West,270,1.8,10.7,27,0.00,,,0.00,WUHU216HW,2013-04-04 19:08:00,
2013-04-04 15:09:00,54.1,21.5,30.18,WSW,248,2.7,10.7,28,0.00,,,0.00,WUHU216HW,2013-04-04 19:09:00,
2013-04-04 15:12:00,54.4,21.8,30.18,SW,225,4.0,9.6,28,0.00,,,0.00,WUHU216HW,2013-04-04 19:12:00,
2013-04-04 15:13:00,54.6,21.9,30.18,SE,135,4.0,9.6,28,0.00,,,0.00,WUHU216HW,2013-04-04 19:13:00,
2013-04-04 15:14:00,54.8,22.1,30.18,SSW,203,2.9,6.3,28,0.00,,,0.00,WUHU216HW,2013-04-04 19:14:00,
2013-04-04 15:17:00,55.3,21.7,30.18,SE,135,5.6,6.3,27,0.00,,,0.00,WUHU216HW,2013-04-04 19:17:00,
2013-04-04 15:18:00,55.3,21.7,30.18,South,180,4.7,6.3,27,0.00,,,0.00,WUHU216HW,2013-04-04 19:18:00,
2013-04-04 15:19:00,55.2,21.6,30.18,WSW,248,4.0,6.3,27,0.00,,,0.00,WUHU216HW,2013-04-04 19:19:00,
2013-04-04 15:22:00,55.2,21.6,30.18,WSW,248,6.3,11.0,27,0.00,,,0.00,WUHU216HW,2013-04-04 19:22:00,
2013-04-04 15:23:00,55.2,21.6,30.18,WSW,248,6.3,11.0,27,0.00,,,0.00,WUHU216HW,2013-04-04 19:23:00,
2013-04-04 15:24:00,55.2,21.6,30.18,SSW,203,11.0,11.0,27,0.00,,,0.00,WUHU216HW,2013-04-04 19:24:00,
2013-04-04 15:28:00,55.2,21.6,30.18,WSW,248,5.4,11.0,27,0.00,,,0.00,WUHU216HW,2013-04-04 19:28:00,
2013-04-04 15:29:00,55.2,21.6,30.17,WSW,248,5.8,11.0,27,0.00,,,0.00,WUHU216HW,2013-04-04 19:29:00,
2013-04-04 15:30:00,55.0,20.6,30.17,WSW,248,4.7,11.0,26,0.00,,,0.00,WUHU216HW,2013-04-04 19:30:00,
2013-04-04 15:33:00,54.6,21.1,30.17,SSW,203,7.8,11.0,27,0.00,,,0.00,WUHU216HW,2013-04-04 19:33:00,
2013-04-04 15:34:00,54.6,21.1,30.17,SW,225,4.0,7.8,27,0.00,,,0.00,WUHU216HW,2013-04-04 19:34:00,
2013-04-04 15:36:00,54.6,21.1,30.17,South,180,5.8,7.8,27,0.00,,,0.00,WUHU216HW,2013-04-04 19:36:00,
2013-04-04 15:38:00,54.6,20.2,30.17,WSW,248,6.3,7.8,26,0.00,,,0.00,WUHU216HW,2013-04-04 19:38:00,
2013-04-04 15:39:00,54.3,20.9,30.16,SE,135,2.5,7.8,27,0.00,,,0.00,WUHU216HW,2013-04-04 19:39:00,
2013-04-04 15:42:00,54.3,20.9,30.17,SSW,203,5.4,7.8,27,0.00,,,0.00,WUHU216HW,2013-04-04 19:42:00,
2013-04-04 15:43:00,54.4,20.9,30.16,SE,135,2.0,6.3,27,0.00,,,0.00,WUHU216HW,2013-04-04 19:43:00,
2013-04-04 15:44:00,54.4,20.9,30.16,SSE,158,5.4,6.3,27,0.00,,,0.00,WUHU216HW,2013-04-04 19:44:00,
2013-04-04 15:47:00,54.6,22.0,30.16,NW,315,2.2,6.3,28,0.00,,,0.00,WUHU216HW,2013-04-04 19:47:00,
2013-04-04 15:49:00,55.0,19.7,30.15,WSW,248,3.4,5.4,25,0.00,,,0.00,WUHU216HW,2013-04-04 19:49:00,
2013-04-04 15:52:00,55.0,19.7,30.15,SW,225,2.2,5.4,25,0.00,,,0.00,WUHU216HW,2013-04-04 19:52:00,
2013-04-04 15:54:00,55.0,21.5,30.15,East,90,0.9,3.4,27,0.00,,,0.00,WUHU216HW,2013-04-04 19:54:00,
2013-04-04 15:57:00,55.6,21.9,30.15,WSW,248,8.5,8.5,27,0.00,,,0.00,WUHU216HW,2013-04-04 19:57:00,
2013-04-04 15:59:00,56.0,22.2,30.15,SSW,203,4.3,8.5,27,0.00,,,0.00,WUHU216HW,2013-04-04 19:59:00,
2013-04-04 16:00:00,56.2,21.5,30.15,WSW,248,3.4,8.5,26,0.00,,,0.00,WUHU216HW,2013-04-04 20:00:00,
2013-04-04 16:02:00,56.2,20.6,30.15,South,180,5.1,8.5,25,0.00,,,0.00,WUHU216HW,2013-04-04 20:02:00,
2013-04-04 16:04:00,56.0,20.5,30.15,SSE,158,3.8,8.5,25,0.00,,,0.00,WUHU216HW,2013-04-04 20:04:00,
2013-04-04 16:05:00,55.8,19.4,30.15,South,180,3.4,8.5,24,0.00,,,0.00,WUHU216HW,2013-04-04 20:05:00,
2013-04-04 16:07:00,55.4,20.0,30.15,South,180,8.3,8.3,25,0.00,,,0.00,WUHU216HW,2013-04-04 20:07:00,
2013-04-04 16:09:00,55.4,19.0,30.15,SSE,158,6.3,8.3,24,0.00,,,0.00,WUHU216HW,2013-04-04 20:09:00,
2013-04-04 16:10:00,55.3,19.9,30.14,SSW,203,1.8,8.3,25,0.00,,,0.00,WUHU216HW,2013-04-04 20:10:00,
2013-04-04 16:11:00,55.4,21.7,30.14,WSW,248,4.0,8.3,27,0.00,,,0.00,WUHU216HW,2013-04-04 20:11:00,
2013-04-04 16:13:00,55.4,21.7,30.14,SSW,203,8.3,8.3,27,0.00,,,0.00,WUHU216HW,2013-04-04 20:13:00,
2013-04-04 16:14:00,55.4,21.7,30.14,WSW,248,2.5,8.3,27,0.00,,,0.00,WUHU216HW,2013-04-04 20:14:00,
2013-04-04 16:15:00,55.6,20.1,30.14,WSW,248,2.5,8.3,25,0.00,,,0.00,WUHU216HW,2013-04-04 20:15:00,
2013-04-04 16:16:00,55.6,20.1,30.14,SE,135,4.9,8.3,25,0.00,,,0.00,WUHU216HW,2013-04-04 20:16:00,
2013-04-04 16:18:00,55.8,22.1,30.14,South,180,7.6,8.3,27,0.00,,,0.00,WUHU216HW,2013-04-04 20:18:00,
2013-04-04 16:20:00,55.6,20.1,30.14,SSW,203,2.7,8.3,25,0.00,,,0.00,WUHU216HW,2013-04-04 20:20:00,
2013-04-04 16:21:00,55.6,20.1,30.14,West,270,7.8,8.3,25,0.00,,,0.00,WUHU216HW,2013-04-04 20:21:00,
2013-04-04 16:23:00,55.4,20.0,30.14,South,180,5.6,7.8,25,0.00,,,0.00,WUHU216HW,2013-04-04 20:23:00,
2013-04-04 16:25:00,55.4,21.8,30.14,South,180,3.4,7.8,27,0.00,,,0.00,WUHU216HW,2013-04-04 20:25:00,
2013-04-04 16:27:00,55.3,21.7,30.14,SSW,203,6.9,10.3,27,0.00,,,0.00,WUHU216HW,2013-04-04 20:27:00,
2013-04-04 16:29:00,55.1,21.5,30.14,SSW,203,3.4,10.3,27,0.00,,,0.00,WUHU216HW,2013-04-04 20:29:00,
2013-04-04 16:30:00,55.1,20.6,30.14,SSE,158,3.4,10.3,26,0.00,,,0.00,WUHU216HW,2013-04-04 20:30:00,
2013-04-04 16:32:00,54.9,21.3,30.14,South,180,9.8,10.3,27,0.00,,,0.00,WUHU216HW,2013-04-04 20:32:00,
2013-04-04 16:35:00,54.9,22.2,30.14,SSW,203,13.0,13.0,28,0.00,,,0.00,WUHU216HW,2013-04-04 20:35:00,
2013-04-04 16:37:00,54.7,22.8,30.14,SSE,158,7.6,13.0,29,0.00,,,0.00,WUHU216HW,2013-04-04 20:37:00,
2013-04-04 16:38:00,54.5,22.7,30.14,SSE,158,7.6,13.0,29,0.00,,,0.00,WUHU216HW,2013-04-04 20:38:00,
2013-04-04 16:40:00,54.4,22.6,30.14,SE,135,2.0,13.0,29,0.00,,,0.00,WUHU216HW,2013-04-04 20:40:00,
2013-04-04 16:43:00,54.4,23.4,30.14,SW,225,6.3,13.0,30,0.00,,,0.00,WUHU216HW,2013-04-04 20:43:00,
2013-04-04 16:45:00,54.2,23.2,30.14,ESE,113,2.7,7.8,30,0.00,,,0.00,WUHU216HW,2013-04-04 20:45:00,
2013-04-04 16:48:00,54.4,23.4,30.14,South,180,5.6,7.8,30,0.00,,,0.00,WUHU216HW,2013-04-04 20:48:00,
2013-04-04 16:50:00,54.5,24.3,30.13,SSW,203,4.3,7.8,31,0.00,,,0.00,WUHU216HW,2013-04-04 20:50:00,
2013-04-04 16:51:00,54.7,24.4,30.13,SSW,203,6.9,7.8,31,0.00,,,0.00,WUHU216HW,2013-04-04 20:51:00,
2013-04-04 16:53:00,54.9,23.8,30.13,South,180,6.3,6.9,30,0.00,,,0.00,WUHU216HW,2013-04-04 20:53:00,
2013-04-04 16:55:00,54.7,23.7,30.13,SSE,158,7.4,8.5,30,0.00,,,0.00,WUHU216HW,2013-04-04 20:55:00,
2013-04-04 16:56:00,54.2,23.2,30.13,South,180,8.5,8.5,30,0.00,,,0.00,WUHU216HW,2013-04-04 20:56:00,
2013-04-04 16:58:00,54.0,23.1,30.13,SE,135,8.5,8.5,30,0.00,,,0.00,WUHU216HW,2013-04-04 20:58:00,
2013-04-04 17:00:00,53.7,23.5,30.13,SSW,203,4.5,8.5,31,0.00,,,0.00,WUHU216HW,2013-04-04 21:00:00,
2013-04-04 17:02:00,53.6,23.4,30.14,SW,225,5.6,8.5,31,0.00,,,0.00,WUHU216HW,2013-04-04 21:02:00,
2013-04-04 17:03:00,53.4,23.2,30.14,South,180,7.8,8.5,31,0.00,,,0.00,WUHU216HW,2013-04-04 21:03:00,
2013-04-04 17:05:00,53.0,22.9,30.13,WSW,248,4.0,8.5,31,0.00,,,0.00,WUHU216HW,2013-04-04 21:05:00,
2013-04-04 17:07:00,53.0,22.9,30.13,SSW,203,4.9,8.5,31,0.00,,,0.00,WUHU216HW,2013-04-04 21:07:00,
2013-04-04 17:09:00,52.8,22.7,30.14,SSW,203,5.6,7.8,31,0.00,,,0.00,WUHU216HW,2013-04-04 21:09:00,
2013-04-04 17:11:00,52.7,23.4,30.14,SSE,158,5.6,9.8,32,0.00,,,0.00,WUHU216HW,2013-04-04 21:11:00,
2013-04-04 17:12:00,52.5,23.2,30.13,South,180,6.3,9.8,32,0.00,,,0.00,WUHU216HW,2013-04-04 21:12:00,
2013-04-04 17:14:00,52.3,23.1,30.14,SSW,203,8.5,9.8,32,0.00,,,0.00,WUHU216HW,2013-04-04 21:14:00,
2013-04-04 17:16:00,52.3,23.1,30.13,South,180,6.9,9.8,32,0.00,,,0.00,WUHU216HW,2013-04-04 21:16:00,
2013-04-04 17:17:00,52.1,22.9,30.13,SW,225,4.7,9.8,32,0.00,,,0.00,WUHU216HW,2013-04-04 21:17:00,
2013-04-04 17:19:00,51.9,22.7,30.13,South,180,7.2,8.5,32,0.00,,,0.00,WUHU216HW,2013-04-04 21:19:00,
2013-04-04 17:22:00,51.6,23.2,30.13,SSE,158,4.0,8.5,33,0.00,,,0.00,WUHU216HW,2013-04-04 21:22:00,
2013-04-04 17:24:00,51.6,23.9,30.13,SE,135,7.8,7.8,34,0.00,,,0.00,WUHU216HW,2013-04-04 21:24:00,
2013-04-04 17:25:00,51.6,23.9,30.13,SE,135,7.8,7.8,34,0.00,,,0.00,WUHU216HW,2013-04-04 21:25:00,
2013-04-04 17:27:00,51.4,23.7,30.13,SSW,203,6.0,8.5,34,0.00,,,0.00,WUHU216HW,2013-04-04 21:27:00,
2013-04-04 17:30:00,51.2,23.6,30.13,South,180,12.1,12.1,34,0.00,,,0.00,WUHU216HW,2013-04-04 21:30:00,
2013-04-04 17:32:00,50.9,23.3,30.13,South,180,5.6,12.1,34,0.00,,,0.00,WUHU216HW,2013-04-04 21:32:00,
2013-04-04 17:33:00,50.9,23.3,30.13,South,180,5.6,12.1,34,0.00,,,0.00,WUHU216HW,2013-04-04 21:33:00,
2013-04-04 17:35:00,50.7,23.8,30.13,South,180,7.2,12.1,35,0.00,,,0.00,WUHU216HW,2013-04-04 21:35:00,
2013-04-04 17:38:00,50.5,24.3,30.13,SSE,158,6.9,12.1,36,0.00,,,0.00,WUHU216HW,2013-04-04 21:38:00,
2013-04-04 17:40:00,50.3,24.2,30.13,South,180,5.4,11.6,36,0.00,,,0.00,WUHU216HW,2013-04-04 21:40:00,
2013-04-04 17:43:00,50.2,24.7,30.13,South,180,4.0,8.9,37,0.00,,,0.00,WUHU216HW,2013-04-04 21:43:00,
2013-04-04 17:45:00,50.2,24.7,30.13,SSW,203,2.2,8.9,37,0.00,,,0.00,WUHU216HW,2013-04-04 21:45:00,
2013-04-04 17:48:00,50.2,24.7,30.13,South,180,4.7,5.4,37,0.00,,,0.00,WUHU216HW,2013-04-04 21:48:00,
2013-04-04 17:50:00,50.2,24.7,30.13,South,180,4.0,6.0,37,0.00,,,0.00,WUHU216HW,2013-04-04 21:50:00,
2013-04-04 17:53:00,50.2,24.7,30.13,SSW,203,4.0,8.7,37,0.00,,,0.00,WUHU216HW,2013-04-04 21:53:00,
2013-04-04 17:55:00,50.1,24.6,30.13,South,180,4.7,8.7,37,0.00,,,0.00,WUHU216HW,2013-04-04 21:55:00,
2013-04-04 17:59:00,49.7,24.2,30.13,South,180,7.2,8.7,37,0.00,,,0.00,WUHU216HW,2013-04-04 21:59:00,
2013-04-04 18:00:00,49.7,24.2,30.13,SSW,203,9.8,9.8,37,0.00,,,0.00,WUHU216HW,2013-04-04 22:00:00,
2013-04-04 18:04:00,49.2,23.8,30.13,SSW,203,9.8,9.8,37,0.00,,,0.00,WUHU216HW,2013-04-04 22:04:00,
2013-04-04 18:05:00,49.0,23.6,30.13,SSW,203,8.3,9.8,37,0.00,,,0.00,WUHU216HW,2013-04-04 22:05:00,
2013-04-04 18:09:00,48.4,23.8,30.13,SSE,158,8.1,9.8,38,0.00,,,0.00,WUHU216HW,2013-04-04 22:09:00,
2013-04-04 18:10:00,48.3,23.7,30.13,SSW,203,7.6,9.8,38,0.00,,,0.00,WUHU216HW,2013-04-04 22:10:00,
2013-04-04 18:14:00,48.1,24.1,30.13,SE,135,2.7,8.5,39,0.00,,,0.00,WUHU216HW,2013-04-04 22:14:00,
2013-04-04 18:15:00,48.1,24.1,30.13,South,180,4.7,8.5,39,0.00,,,0.00,WUHU216HW,2013-04-04 22:15:00,
2013-04-04 18:16:00,47.9,24.6,30.13,SSE,158,3.8,8.5,40,0.00,,,0.00,WUHU216HW,2013-04-04 22:16:00,
2013-04-04 18:19:00,47.5,25.4,30.13,East,90,4.3,7.6,42,0.00,,,0.00,WUHU216HW,2013-04-04 22:19:00,
2013-04-04 18:21:00,47.3,25.2,30.13,SSE,158,4.7,7.6,42,0.00,,,0.00,WUHU216HW,2013-04-04 22:21:00,
2013-04-04 18:22:00,47.3,25.2,30.13,SSE,158,4.7,7.6,42,0.00,,,0.00,WUHU216HW,2013-04-04 22:22:00,
2013-04-04 18:24:00,47.1,25.0,30.13,ESE,113,3.6,4.7,42,0.00,,,0.00,WUHU216HW,2013-04-04 22:24:00,
2013-04-04 18:26:00,46.9,25.4,30.13,South,180,6.3,6.3,43,0.00,,,0.00,WUHU216HW,2013-04-04 22:26:00,
2013-04-04 18:27:00,46.9,26.0,30.13,SSE,158,4.0,6.3,44,0.00,,,0.00,WUHU216HW,2013-04-04 22:27:00,
2013-04-04 18:28:00,46.9,26.0,30.13,SSE,158,4.0,6.3,44,0.00,,,0.00,WUHU216HW,2013-04-04 22:28:00,
2013-04-04 18:30:00,46.6,25.7,30.13,SE,135,5.4,6.3,44,0.00,,,0.00,WUHU216HW,2013-04-04 22:30:00,
2013-04-04 18:31:00,46.4,25.5,30.13,SSW,203,4.7,6.3,44,0.00,,,0.00,WUHU216HW,2013-04-04 22:31:00,
2013-04-04 18:32:00,46.4,26.1,30.13,SSE,158,5.4,6.3,45,0.00,,,0.00,WUHU216HW,2013-04-04 22:32:00,
2013-04-04 18:33:00,46.4,26.1,30.13,SSE,158,5.4,6.3,45,0.00,,,0.00,WUHU216HW,2013-04-04 22:33:00,
2013-04-04 18:35:00,46.0,25.7,30.14,SSW,203,6.9,6.9,45,0.00,,,0.00,WUHU216HW,2013-04-04 22:35:00,
2013-04-04 18:37:00,45.7,26.0,30.14,SE,135,4.7,6.9,46,0.00,,,0.00,WUHU216HW,2013-04-04 22:37:00,
2013-04-04 18:38:00,45.7,26.0,30.14,SE,135,4.7,6.9,46,0.00,,,0.00,WUHU216HW,2013-04-04 22:38:00,
2013-04-04 18:40:00,45.7,25.5,30.14,SSE,158,4.9,6.9,45,0.00,,,0.00,WUHU216HW,2013-04-04 22:40:00,
2013-04-04 18:43:00,45.7,26.0,30.14,SSE,158,2.9,6.9,46,0.00,,,0.00,WUHU216HW,2013-04-04 22:43:00,
2013-04-04 18:45:00,45.5,25.8,30.14,SSE,158,3.8,6.5,46,0.00,,,0.00,WUHU216HW,2013-04-04 22:45:00,
2013-04-04 18:48:00,45.5,25.8,30.14,South,180,4.0,6.5,46,0.00,,,0.00,WUHU216HW,2013-04-04 22:48:00,
2013-04-04 18:51:00,45.5,25.3,30.14,South,180,4.5,4.9,45,0.00,,,0.00,WUHU216HW,2013-04-04 22:51:00,
2013-04-04 18:53:00,45.5,25.9,30.14,South,180,7.6,7.6,46,0.00,,,0.00,WUHU216HW,2013-04-04 22:53:00,
2013-04-04 18:54:00,45.6,25.3,30.14,SSW,203,4.9,7.6,45,0.00,,,0.00,WUHU216HW,2013-04-04 22:54:00,
2013-04-04 18:57:00,45.6,25.3,30.14,SSE,158,2.0,7.6,45,0.00,,,0.00,WUHU216HW,2013-04-04 22:57:00,
2013-04-04 18:58:00,45.6,25.3,30.14,South,180,2.5,7.6,45,0.00,,,0.00,WUHU216HW,2013-04-04 22:58:00,
2013-04-04 18:59:00,45.4,25.1,30.14,South,180,7.6,7.6,45,0.00,,,0.00,WUHU216HW,2013-04-04 22:59:00,
2013-04-04 19:02:00,45.4,25.7,30.14,South,180,2.0,7.8,46,0.00,,,0.00,WUHU216HW,2013-04-04 23:02:00,
2013-04-04 19:03:00,45.2,25.5,30.14,SSW,203,4.7,7.8,46,0.00,,,0.00,WUHU216HW,2013-04-04 23:03:00,
2013-04-04 19:04:00,45.2,25.0,30.14,SSE,158,3.4,7.8,45,0.00,,,0.00,WUHU216HW,2013-04-04 23:04:00,
2013-04-04 19:07:00,45.0,24.8,30.14,South,180,5.4,7.8,45,0.00,,,0.00,WUHU216HW,2013-04-04 23:07:00,
2013-04-04 19:08:00,45.0,25.3,30.14,ESE,113,3.8,7.8,46,0.00,,,0.00,WUHU216HW,2013-04-04 23:08:00,
2013-04-04 19:09:00,44.9,25.3,30.14,South,180,2.0,7.8,46,0.00,,,0.00,WUHU216HW,2013-04-04 23:09:00,
2013-04-04 19:12:00,44.7,25.1,30.14,SSE,158,6.3,6.9,46,0.00,,,0.00,WUHU216HW,2013-04-04 23:12:00,
2013-04-04 19:13:00,44.7,25.6,30.14,SSW,203,6.3,6.9,47,0.00,,,0.00,WUHU216HW,2013-04-04 23:13:00,
2013-04-04 19:14:00,44.7,25.6,30.14,South,180,3.6,6.9,47,0.00,,,0.00,WUHU216HW,2013-04-04 23:14:00,
2013-04-04 19:15:00,44.7,25.6,30.14,South,180,3.6,6.9,47,0.00,,,0.00,WUHU216HW,2013-04-04 23:15:00,
2013-04-04 19:17:00,44.5,25.5,30.14,SW,225,5.8,6.5,47,0.00,,,0.00,WUHU216HW,2013-04-04 23:17:00,
2013-04-04 19:18:00,44.3,25.3,30.14,SSW,203,6.3,6.5,47,0.00,,,0.00,WUHU216HW,2013-04-04 23:18:00,
2013-04-04 19:19:00,44.3,25.8,30.13,ESE,113,1.8,6.5,48,0.00,,,0.00,WUHU216HW,2013-04-04 23:19:00,
2013-04-04 19:20:00,44.3,25.8,30.13,ESE,113,1.8,6.5,48,0.00,,,0.00,WUHU216HW,2013-04-04 23:20:00,
2013-04-04 19:22:00,44.3,25.8,30.13,ESE,113,1.8,6.5,48,0.00,,,0.00,WUHU216HW,2013-04-04 23:22:00,
2013-04-04 19:23:00,44.3,25.8,30.13,ESE,113,1.8,6.5,48,0.00,,,0.00,WUHU216HW,2013-04-04 23:23:00,
2013-04-04 19:24:00,44.3,25.8,30.13,ESE,113,1.8,6.5,48,0.00,,,0.00,WUHU216HW,2013-04-04 23:24:00,
2013-04-04 19:25:00,44.3,25.8,30.13,ESE,113,1.8,6.5,48,0.00,,,0.00,WUHU216HW,2013-04-04 23:25:00,
2013-04-04 19:27:00,44.3,25.8,30.13,ESE,113,1.8,6.3,48,0.00,,,0.00,WUHU216HW,2013-04-04 23:27:00,
2013-04-04 19:29:00,44.3,25.8,30.13,ESE,113,1.8,1.8,48,0.00,,,0.00,WUHU216HW,2013-04-04 23:29:00,
2013-04-04 19:49:00,43.7,26.3,30.13,SSW,203,4.9,4.9,50,0.00,,,0.00,WUHU216HW,2013-04-04 23:49:00,
2013-04-04 19:50:00,43.7,26.3,30.13,SSW,203,4.9,4.9,50,0.00,,,0.00,WUHU216HW,2013-04-04 23:50:00,
2013-04-04 19:54:00,43.6,26.1,30.13,SSE,158,1.8,4.9,50,0.00,,,0.00,WUHU216HW,2013-04-04 23:54:00,
2013-04-04 19:55:00,43.6,26.1,30.13,SSE,158,1.8,4.9,50,0.00,,,0.00,WUHU216HW,2013-04-04 23:55:00,
2013-04-04 20:00:00,43.4,26.4,30.13,SE,135,3.4,3.4,51,0.00,,,0.00,WUHU216HW,2013-04-05 00:00:00,
2013-04-04 20:01:00,43.4,26.4,30.13,SE,135,2.5,3.4,51,0.00,,,0.00,WUHU216HW,2013-04-05 00:01:00,
2013-04-04 20:05:00,43.3,26.8,30.12,SSE,158,3.8,3.8,52,0.00,,,0.00,WUHU216HW,2013-04-05 00:05:00,
2013-04-04 20:06:00,43.3,26.3,30.12,SE,135,1.8,3.8,51,0.00,,,0.00,WUHU216HW,2013-04-05 00:06:00,
2013-04-04 20:10:00,43.1,26.7,30.12,South,180,2.5,3.8,52,0.00,,,0.00,WUHU216HW,2013-04-05 00:10:00,
2013-04-04 20:11:00,43.1,26.7,30.12,South,180,2.5,3.8,52,0.00,,,0.00,WUHU216HW,2013-04-05 00:11:00,
2013-04-04 20:15:00,43.1,27.1,30.12,SE,135,3.4,3.6,53,0.00,,,0.00,WUHU216HW,2013-04-05 00:15:00,
2013-04-04 20:16:00,43.1,27.1,30.12,SE,135,3.4,3.6,53,0.00,,,0.00,WUHU216HW,2013-04-05 00:16:00,
2013-04-04 20:20:00,42.9,27.0,30.12,SE,135,2.5,3.4,53,0.00,,,0.00,WUHU216HW,2013-04-05 00:20:00,
2013-04-04 20:21:00,43.0,27.4,30.12,SE,135,3.6,3.6,54,0.00,,,0.00,WUHU216HW,2013-04-05 00:21:00,
2013-04-04 20:22:00,43.0,27.4,30.12,SE,135,3.6,3.6,54,0.00,,,0.00,WUHU216HW,2013-04-05 00:22:00,
2013-04-04 20:25:00,43.0,27.0,30.12,South,180,1.8,4.0,53,0.00,,,0.00,WUHU216HW,2013-04-05 00:25:00,
2013-04-04 20:27:00,42.8,26.8,30.12,SSE,158,3.8,4.0,53,0.00,,,0.00,WUHU216HW,2013-04-05 00:27:00,
2013-04-04 20:30:00,42.8,27.3,30.11,SE,135,1.6,4.0,54,0.00,,,0.00,WUHU216HW,2013-04-05 00:30:00,
2013-04-04 20:31:00,42.8,27.3,30.11,SE,135,1.6,4.0,54,0.00,,,0.00,WUHU216HW,2013-04-05 00:31:00,
2013-04-04 20:32:00,42.8,27.8,30.11,SE,135,2.0,4.0,55,0.00,,,0.00,WUHU216HW,2013-04-05 00:32:00,
2013-04-04 20:35:00,42.8,26.8,30.11,SSE,158,0.7,3.8,53,0.00,,,0.00,WUHU216HW,2013-04-05 00:35:00,
2013-04-04 20:36:00,42.8,26.8,30.11,SSE,158,0.7,3.8,53,0.00,,,0.00,WUHU216HW,2013-04-05 00:36:00,
2013-04-04 20:37:00,42.6,27.1,30.11,ESE,113,0.9,3.6,54,0.00,,,0.00,WUHU216HW,2013-04-05 00:37:00,
2013-04-04 20:41:00,42.6,28.0,30.11,ESE,113,1.8,2.2,56,0.00,,,0.00,WUHU216HW,2013-04-05 00:41:00,
2013-04-04 20:42:00,42.5,27.5,30.11,SSW,203,1.8,2.2,55,0.00,,,0.00,WUHU216HW,2013-04-05 00:42:00,
2013-04-04 20:43:00,42.5,27.5,30.11,SSW,203,1.8,2.2,55,0.00,,,0.00,WUHU216HW,2013-04-05 00:43:00,
2013-04-04 20:46:00,42.5,27.5,30.11,SE,135,1.1,1.8,55,0.00,,,0.00,WUHU216HW,2013-04-05 00:46:00,
2013-04-04 20:47:00,42.5,27.5,30.11,ENE,68,1.1,1.8,55,0.00,,,0.00,WUHU216HW,2013-04-05 00:47:00,
2013-04-04 20:48:00,42.5,27.5,30.11,ENE,68,1.1,1.8,55,0.00,,,0.00,WUHU216HW,2013-04-05 00:48:00,
2013-04-04 20:51:00,42.4,27.4,30.11,South,180,1.3,1.8,55,0.00,,,0.00,WUHU216HW,2013-04-05 00:51:00,
2013-04-04 20:52:00,42.4,27.4,30.11,ESE,113,0.7,3.4,55,0.00,,,0.00,WUHU216HW,2013-04-05 00:52:00,
2013-04-04 20:53:00,42.4,27.4,30.11,ESE,113,0.7,3.4,55,0.00,,,0.00,WUHU216HW,2013-04-05 00:53:00,
2013-04-04 20:56:00,42.4,28.7,30.11,ESE,113,2.5,3.4,58,0.00,,,0.00,WUHU216HW,2013-04-05 00:56:00,
2013-04-04 20:57:00,42.4,28.7,30.11,ESE,113,2.0,3.4,58,0.00,,,0.00,WUHU216HW,2013-04-05 00:57:00,
2013-04-04 20:58:00,42.4,28.7,30.11,ESE,113,2.0,3.4,58,0.00,,,0.00,WUHU216HW,2013-04-05 00:58:00,
2013-04-04 21:01:00,42.2,28.1,30.10,ESE,113,1.1,2.5,57,0.00,,,0.00,WUHU216HW,2013-04-05 01:01:00,
2013-04-04 21:03:00,42.2,28.5,30.11,SSE,158,1.8,2.5,58,0.00,,,0.00,WUHU216HW,2013-04-05 01:03:00,
2013-04-04 21:06:00,42.2,28.5,30.11,East,90,1.3,4.7,58,0.00,,,0.00,WUHU216HW,2013-04-05 01:06:00,
2013-04-04 21:08:00,42.2,28.5,30.11,SSE,158,2.0,4.7,58,0.00,,,0.00,WUHU216HW,2013-04-05 01:08:00,
2013-04-04 21:11:00,42.2,28.5,30.11,East,90,1.3,4.7,58,0.00,,,0.00,WUHU216HW,2013-04-05 01:11:00,
2013-04-04 21:13:00,42.2,28.5,30.11,South,180,4.7,4.7,58,0.00,,,0.00,WUHU216HW,2013-04-05 01:13:00,
2013-04-04 21:14:00,42.0,28.8,30.11,SSE,158,2.2,4.7,59,0.00,,,0.00,WUHU216HW,2013-04-05 01:14:00,
2013-04-04 21:15:00,42.0,28.8,30.11,SSE,158,2.2,4.7,59,0.00,,,0.00,WUHU216HW,2013-04-05 01:15:00,
2013-04-04 21:17:00,42.0,28.3,30.11,South,180,2.2,4.7,58,0.00,,,0.00,WUHU216HW,2013-04-05 01:17:00,
2013-04-04 21:18:00,42.0,28.8,30.10,SE,135,0.7,4.7,59,0.00,,,0.00,WUHU216HW,2013-04-05 01:18:00,
2013-04-04 21:20:00,42.0,28.8,30.10,NNW,338,0.4,4.7,59,0.00,,,0.00,WUHU216HW,2013-04-05 01:20:00,
2013-04-04 21:22:00,42.0,28.8,30.10,SE,135,1.8,2.2,59,0.00,,,0.00,WUHU216HW,2013-04-05 01:22:00,
2013-04-04 21:23:00,42.0,28.8,30.10,SSE,158,4.3,4.3,59,0.00,,,0.00,WUHU216HW,2013-04-05 01:23:00,
2013-04-04 21:25:00,42.0,28.8,30.10,SSE,158,3.4,4.3,59,0.00,,,0.00,WUHU216HW,2013-04-05 01:25:00,
2013-04-04 21:27:00,41.8,28.6,30.10,SSE,158,2.0,4.3,59,0.00,,,0.00,WUHU216HW,2013-04-05 01:27:00,
2013-04-04 21:28:00,41.8,28.6,30.10,SSW,203,4.0,4.3,59,0.00,,,0.00,WUHU216HW,2013-04-05 01:28:00,
2013-04-04 21:30:00,41.8,28.6,30.10,South,180,0.4,4.3,59,0.00,,,0.00,WUHU216HW,2013-04-05 01:30:00,
2013-04-04 21:32:00,41.8,29.0,30.10,SE,135,1.8,4.0,60,0.00,,,0.00,WUHU216HW,2013-04-05 01:32:00,
2013-04-04 21:33:00,41.8,29.0,30.10,SE,135,1.6,4.0,60,0.00,,,0.00,WUHU216HW,2013-04-05 01:33:00,
2013-04-04 21:35:00,41.8,29.4,30.10,SSE,158,2.2,4.0,61,0.00,,,0.00,WUHU216HW,2013-04-05 01:35:00,
2013-04-04 21:37:00,41.8,29.0,30.10,SSE,158,1.1,4.0,60,0.00,,,0.00,WUHU216HW,2013-04-05 01:37:00,
2013-04-04 21:38:00,41.8,29.0,30.10,South,180,1.3,2.5,60,0.00,,,0.00,WUHU216HW,2013-04-05 01:38:00,
2013-04-04 21:40:00,41.8,28.6,30.10,SE,135,0.9,2.2,59,0.00,,,0.00,WUHU216HW,2013-04-05 01:40:00,
2013-04-04 21:42:00,41.8,29.0,30.10,SSE,158,1.6,2.2,60,0.00,,,0.00,WUHU216HW,2013-04-05 01:42:00,
2013-04-04 21:43:00,41.8,29.0,30.10,SSE,158,1.6,2.2,60,0.00,,,0.00,WUHU216HW,2013-04-05 01:43:00,
2013-04-04 21:45:00,41.8,28.6,30.10,SSE,158,0.9,2.0,59,0.00,,,0.00,WUHU216HW,2013-04-05 01:45:00,
2013-04-04 21:46:00,41.8,28.6,30.10,SSE,158,0.9,2.0,59,0.00,,,0.00,WUHU216HW,2013-04-05 01:46:00,
2013-04-04 21:48:00,41.8,28.6,30.10,South,180,1.3,2.0,59,0.00,,,0.00,WUHU216HW,2013-04-05 01:48:00,
2013-04-04 21:49:00,41.8,28.6,30.10,SSE,158,2.0,2.0,59,0.00,,,0.00,WUHU216HW,2013-04-05 01:49:00,
2013-04-04 21:51:00,41.8,28.6,30.10,South,180,0.4,2.0,59,0.00,,,0.00,WUHU216HW,2013-04-05 01:51:00,
2013-04-04 21:54:00,41.7,28.1,30.10,SE,135,2.7,3.4,58,0.00,,,0.00,WUHU216HW,2013-04-05 01:54:00,
2013-04-04 21:55:00,41.7,28.1,30.10,SE,135,2.7,3.4,58,0.00,,,0.00,WUHU216HW,2013-04-05 01:55:00,
2013-04-04 21:56:00,41.7,28.5,30.10,South,180,0.7,3.4,59,0.00,,,0.00,WUHU216HW,2013-04-05 01:56:00,
2013-04-04 21:57:00,41.7,28.1,30.10,WSW,248,1.1,3.4,58,0.00,,,0.00,WUHU216HW,2013-04-05 01:57:00,
2013-04-04 21:59:00,41.7,28.1,30.10,ENE,68,0.4,3.4,58,0.00,,,0.00,WUHU216HW,2013-04-05 01:59:00,
2013-04-04 22:00:00,41.7,28.9,30.10,West,270,2.5,3.4,60,0.00,,,0.00,WUHU216HW,2013-04-05 02:00:00,
2013-04-04 22:02:00,41.7,28.5,30.10,South,180,1.1,3.4,59,0.00,,,0.00,WUHU216HW,2013-04-05 02:02:00,
2013-04-04 22:03:00,41.7,29.3,30.09,SSE,158,3.6,3.6,61,0.00,,,0.00,WUHU216HW,2013-04-05 02:03:00,
2013-04-04 22:04:00,41.7,29.3,30.09,SSE,158,3.6,3.6,61,0.00,,,0.00,WUHU216HW,2013-04-05 02:04:00,
2013-04-04 22:05:00,41.8,29.0,30.09,SSW,203,0.7,3.6,60,0.00,,,0.00,WUHU216HW,2013-04-05 02:05:00,
2013-04-04 22:07:00,41.8,28.6,30.09,SSW,203,4.5,4.5,59,0.00,,,0.00,WUHU216HW,2013-04-05 02:07:00,
2013-04-04 22:08:00,41.8,28.6,30.09,South,180,4.7,4.7,59,0.00,,,0.00,WUHU216HW,2013-04-05 02:08:00,
2013-04-04 22:10:00,41.7,28.9,30.09,WSW,248,0.9,4.7,60,0.00,,,0.00,WUHU216HW,2013-04-05 02:10:00,
2013-04-04 22:13:00,41.7,28.1,30.09,SSW,203,0.7,4.7,58,0.00,,,0.00,WUHU216HW,2013-04-05 02:13:00,
2013-04-04 22:15:00,41.5,27.9,30.09,SE,135,0.9,4.7,58,0.00,,,0.00,WUHU216HW,2013-04-05 02:15:00,
2013-04-04 22:18:00,41.3,28.1,30.09,SW,225,0.7,4.0,59,0.00,,,0.00,WUHU216HW,2013-04-05 02:18:00,
2013-04-04 22:20:00,41.3,28.5,30.09,South,180,2.5,4.0,60,0.00,,,0.00,WUHU216HW,2013-04-05 02:20:00,
2013-04-04 22:23:00,41.3,28.1,30.09,SSE,158,3.8,3.8,59,0.00,,,0.00,WUHU216HW,2013-04-05 02:23:00,
2013-04-04 22:25:00,41.3,28.1,30.09,West,270,1.6,3.8,59,0.00,,,0.00,WUHU216HW,2013-04-05 02:25:00,
2013-04-04 22:28:00,41.3,28.1,30.09,South,180,1.6,3.8,59,0.00,,,0.00,WUHU216HW,2013-04-05 02:28:00,
2013-04-04 22:30:00,41.5,28.3,30.09,SW,225,0.4,3.8,59,0.00,,,0.00,WUHU216HW,2013-04-05 02:30:00,
2013-04-04 22:33:00,41.5,28.3,30.09,SW,225,3.4,3.4,59,0.00,,,0.00,WUHU216HW,2013-04-05 02:33:00,
2013-04-04 22:35:00,41.5,27.9,30.09,SSW,203,2.5,3.4,58,0.00,,,0.00,WUHU216HW,2013-04-05 02:35:00,
2013-04-04 22:38:00,41.7,28.5,30.09,SSW,203,0.7,4.0,59,0.00,,,0.00,WUHU216HW,2013-04-05 02:38:00,
2013-04-04 22:40:00,41.7,28.5,30.09,SSW,203,1.8,4.0,59,0.00,,,0.00,WUHU216HW,2013-04-05 02:40:00,
2013-04-04 22:44:00,41.8,28.2,30.09,SW,225,1.3,4.0,58,0.00,,,0.00,WUHU216HW,2013-04-05 02:44:00,
2013-04-04 22:45:00,41.8,28.2,30.09,South,180,1.8,4.0,58,0.00,,,0.00,WUHU216HW,2013-04-05 02:45:00,
2013-04-04 22:49:00,41.8,27.3,30.09,West,270,0.4,7.2,56,0.00,,,0.00,WUHU216HW,2013-04-05 02:49:00,
2013-04-04 22:50:00,42.0,27.5,30.08,SSE,158,2.9,7.2,56,0.00,,,0.00,WUHU216HW,2013-04-05 02:50:00,
2013-04-04 22:54:00,42.0,27.0,30.09,South,180,0.7,7.2,55,0.00,,,0.00,WUHU216HW,2013-04-05 02:54:00,
2013-04-04 22:55:00,42.2,27.2,30.09,South,180,0.0,7.2,55,0.00,,,0.00,WUHU216HW,2013-04-05 02:55:00,
2013-04-04 22:56:00,42.2,26.7,30.08,SSW,203,2.7,7.2,54,0.00,,,0.00,WUHU216HW,2013-04-05 02:56:00,
2013-04-04 22:59:00,42.2,26.3,30.09,West,270,0.2,4.0,53,0.00,,,0.00,WUHU216HW,2013-04-05 02:59:00,
2013-04-04 23:00:00,42.2,26.3,30.08,SSW,203,2.2,4.0,53,0.00,,,0.00,WUHU216HW,2013-04-05 03:00:00,
2013-04-04 23:01:00,42.2,26.3,30.08,SSW,203,2.2,4.0,53,0.00,,,0.00,WUHU216HW,2013-04-05 03:01:00,
2013-04-04 23:04:00,42.4,26.0,30.09,South,180,1.8,5.4,52,0.00,,,0.00,WUHU216HW,2013-04-05 03:04:00,
2013-04-04 23:05:00,42.4,26.0,30.08,South,180,3.4,5.4,52,0.00,,,0.00,WUHU216HW,2013-04-05 03:05:00,
2013-04-04 23:06:00,42.4,26.0,30.08,South,180,3.4,5.4,52,0.00,,,0.00,WUHU216HW,2013-04-05 03:06:00,
2013-04-04 23:07:00,42.6,25.7,30.08,SSW,203,3.8,5.4,51,0.00,,,0.00,WUHU216HW,2013-04-05 03:07:00,
2013-04-04 23:09:00,42.6,26.2,30.09,SSW,203,3.8,5.4,52,0.00,,,0.00,WUHU216HW,2013-04-05 03:09:00,
2013-04-04 23:11:00,42.6,26.2,30.09,SSW,203,1.8,5.4,52,0.00,,,0.00,WUHU216HW,2013-04-05 03:11:00,
2013-04-04 23:12:00,42.6,25.2,30.09,South,180,6.3,6.3,50,0.00,,,0.00,WUHU216HW,2013-04-05 03:12:00,
2013-04-04 23:15:00,42.6,25.2,30.09,SSW,203,3.4,6.3,50,0.00,,,0.00,WUHU216HW,2013-04-05 03:15:00,
2013-04-04 23:16:00,42.6,24.7,30.08,SSE,158,2.5,6.3,49,0.00,,,0.00,WUHU216HW,2013-04-05 03:16:00,
2013-04-04 23:17:00,42.6,25.2,30.08,SW,225,1.8,6.3,50,0.00,,,0.00,WUHU216HW,2013-04-05 03:17:00,
2013-04-04 23:20:00,42.6,25.2,30.08,SSW,203,2.5,6.3,50,0.00,,,0.00,WUHU216HW,2013-04-05 03:20:00,
2013-04-04 23:21:00,42.6,24.7,30.08,South,180,2.5,6.3,49,0.00,,,0.00,WUHU216HW,2013-04-05 03:21:00,
2013-04-04 23:22:00,42.6,23.7,30.08,SSW,203,1.8,3.4,47,0.00,,,0.00,WUHU216HW,2013-04-05 03:22:00,
2013-04-04 23:25:00,42.7,23.8,30.08,South,180,7.4,7.4,47,0.00,,,0.00,WUHU216HW,2013-04-05 03:25:00,
2013-04-04 23:26:00,42.6,23.7,30.08,SSW,203,2.9,7.4,47,0.00,,,0.00,WUHU216HW,2013-04-05 03:26:00,
2013-04-04 23:27:00,42.6,24.2,30.08,South,180,3.4,7.4,48,0.00,,,0.00,WUHU216HW,2013-04-05 03:27:00,
2013-04-04 23:30:00,42.6,23.7,30.07,SW,225,1.8,7.4,47,0.00,,,0.00,WUHU216HW,2013-04-05 03:30:00,
2013-04-04 23:31:00,42.6,23.1,30.08,WNW,293,6.0,7.4,46,0.00,,,0.00,WUHU216HW,2013-04-05 03:31:00,
2013-04-04 23:32:00,42.6,23.1,30.07,South,180,6.0,7.4,46,0.00,,,0.00,WUHU216HW,2013-04-05 03:32:00,
2013-04-04 23:33:00,42.6,23.1,30.07,South,180,6.0,7.4,46,0.00,,,0.00,WUHU216HW,2013-04-05 03:33:00,
2013-04-04 23:35:00,42.6,22.6,30.07,SSE,158,4.0,6.0,45,0.00,,,0.00,WUHU216HW,2013-04-05 03:35:00,
2013-04-04 23:36:00,42.6,22.1,30.07,NW,315,2.7,6.0,44,0.00,,,0.00,WUHU216HW,2013-04-05 03:36:00,
2013-04-04 23:37:00,42.6,22.1,30.07,WSW,248,1.3,6.0,44,0.00,,,0.00,WUHU216HW,2013-04-05 03:37:00,
2013-04-04 23:38:00,42.6,22.1,30.07,WSW,248,1.3,6.0,44,0.00,,,0.00,WUHU216HW,2013-04-05 03:38:00,
2013-04-04 23:40:00,42.6,22.1,30.07,South,180,5.4,6.5,44,0.00,,,0.00,WUHU216HW,2013-04-05 03:40:00,
2013-04-04 23:42:00,42.6,21.5,30.07,SE,135,0.7,6.5,43,0.00,,,0.00,WUHU216HW,2013-04-05 03:42:00,
2013-04-04 23:43:00,42.6,21.5,30.07,SW,225,2.9,6.5,43,0.00,,,0.00,WUHU216HW,2013-04-05 03:43:00,
2013-04-04 23:45:00,42.6,22.1,30.07,SSE,158,1.8,6.5,44,0.00,,,0.00,WUHU216HW,2013-04-05 03:45:00,
2013-04-04 23:47:00,42.6,22.1,30.07,SSE,158,2.5,6.5,44,0.00,,,0.00,WUHU216HW,2013-04-05 03:47:00,
2013-04-04 23:48:00,42.6,22.1,30.07,South,180,3.4,6.5,44,0.00,,,0.00,WUHU216HW,2013-04-05 03:48:00,
2013-04-04 23:49:00,42.6,22.1,30.06,South,180,3.8,5.4,44,0.00,,,0.00,WUHU216HW,2013-04-05 03:49:00,
2013-04-04 23:51:00,42.6,20.3,30.07,SSW,203,6.9,6.9,41,0.00,,,0.00,WUHU216HW,2013-04-05 03:51:00,
2013-04-04 23:52:00,42.6,20.3,30.06,SSE,158,1.6,6.9,41,0.00,,,0.00,WUHU216HW,2013-04-05 03:52:00,
2013-04-04 23:53:00,42.6,20.3,30.06,SSE,158,1.6,6.9,41,0.00,,,0.00,WUHU216HW,2013-04-05 03:53:00,
2013-04-04 23:54:00,42.6,19.8,30.06,WSW,248,1.3,6.9,40,0.00,,,0.00,WUHU216HW,2013-04-05 03:54:00,
2013-04-04 23:56:00,42.6,20.3,30.06,South,180,5.1,6.9,41,0.00,,,0.00,WUHU216HW,2013-04-05 03:56:00,
2013-04-04 23:57:00,42.6,20.9,30.07,SW,225,1.8,6.9,42,0.00,,,0.00,WUHU216HW,2013-04-05 03:57:00,
2013-04-04 23:58:00,42.6,20.9,30.07,SW,225,1.8,6.9,42,0.00,,,0.00,WUHU216HW,2013-04-05 03:58:00,
2013-04-04 23:59:00,42.6,20.9,30.07,SSW,203,7.6,7.6,42,0.00,,,0.00,WUHU216HW,2013-04-05 03:59:00,